Observation data for Endee on 11/14/2017      Previous  Date       Current Mesonet Observations  Soil Data  Daily Summary Page  Observations in Plain Language
KEN1 140601Z 19009KT 09/08 A3013 RMK A01 T00940083  RH  093%=      5-min Rain = 0
KEN1 140602Z 19009KT 09/08 A3013 RMK A01 T00940083  RH  093%=      5-min Rain = 0
KEN1 140603Z 19009KT 10/08 A3013 RMK A01 T00950084  RH  093%=      5-min Rain = 0
KEN1 140604Z 19008KT 10/08 A3013 RMK A01 T00950084  RH  093%=      5-min Rain = 0
KEN1 140605Z 19008KT 10/08 A3013 RMK A01 T00950084  RH  093%=      5-min Rain = 0
KEN1 140606Z 19008KT 10/08 A3013 RMK A01 T00950084  RH  093%=      5-min Rain = 0
KEN1 140607Z 19008KT 09/08 A3013 RMK A01 T00940084  RH  093%=      5-min Rain = 0
KEN1 140608Z 18007KT 09/08 A3013 RMK A01 T00940083  RH  093%=      5-min Rain = 0
KEN1 140609Z 18008KT 09/08 A3013 RMK A01 T00930082  RH  093%=      5-min Rain = 0
KEN1 140610Z 18008KT 09/08 A3013 RMK A01 T00920081  RH  093%=      5-min Rain = 0
KEN1 140611Z 18008KT 09/08 A3013 RMK A01 T00910081  RH  093%=      5-min Rain = 0
KEN1 140612Z 18008KT 09/08 A3013 RMK A01 T00900081  RH  094%=      5-min Rain = 0
KEN1 140613Z 17008KT 09/08 A3013 RMK A01 T00900081  RH  094%=      5-min Rain = 0
KEN1 140614Z 17008KT 09/08 A3013 RMK A01 T00900081  RH  094%=      5-min Rain = 0
KEN1 140615Z 18008KT 09/08 A3013 RMK A01 T00900081  RH  094%=      5-min Rain = 0
KEN1 140616Z 18008KT 09/08 A3013 RMK A01 T00900081  RH  094%=      5-min Rain = 0
KEN1 140617Z 18008KT 09/08 A3013 RMK A01 T00900081  RH  094%=      5-min Rain = 0
KEN1 140618Z 18008KT 09/08 A3013 RMK A01 T00910082  RH  094%=      5-min Rain = 0
KEN1 140619Z 18008KT 09/08 A3013 RMK A01 T00910082  RH  094%=      5-min Rain = 0
KEN1 140620Z 18008KT 09/08 A3013 RMK A01 T00910082  RH  094%=      5-min Rain = 0
KEN1 140621Z 18008KT 09/08 A3013 RMK A01 T00910081  RH  094%=      5-min Rain = 0
KEN1 140622Z 18009KT 09/08 A3013 RMK A01 T00900081  RH  094%=      5-min Rain = 0
KEN1 140623Z 17009KT 09/08 A3013 RMK A01 T00900081  RH  094%=      5-min Rain = 0
KEN1 140624Z 18009KT 09/08 A3013 RMK A01 T00900081  RH  094%=      5-min Rain = 0
KEN1 140625Z 17009KT 09/08 A3013 RMK A01 T00890081  RH  094%=      5-min Rain = 0
KEN1 140626Z 18008KT 09/08 A3013 RMK A01 T00890081  RH  095%=      5-min Rain = 0
KEN1 140627Z 17008KT 09/08 A3013 RMK A01 T00890081  RH  094%=      5-min Rain = 0
KEN1 140628Z 17008KT 09/08 A3013 RMK A01 T00890081  RH  094%=      5-min Rain = 0
KEN1 140629Z 17008KT 09/08 A3013 RMK A01 T00890080  RH  094%=      5-min Rain = 0
KEN1 140630Z 17008KT 09/08 A3013 RMK A01 T00890080  RH  094%=      5-min Rain = 0
KEN1 140631Z 17008KT 09/08 A3013 RMK A01 T00880080  RH  094%=      5-min Rain = 0
KEN1 140632Z 16008KT 09/08 A3013 RMK A01 T00880079  RH  094%=      5-min Rain = 0
KEN1 140633Z 16008KT 09/08 A3013 RMK A01 T00870079  RH  094%=      5-min Rain = 0
KEN1 140634Z 16009KT 09/08 A3013 RMK A01 T00870078  RH  094%=      5-min Rain = 0
KEN1 140635Z 16009KT 09/08 A3013 RMK A01 T00870079  RH  095%=      5-min Rain = 0
KEN1 140636Z 17009KT 09/08 A3013 RMK A01 T00870079  RH  095%=      5-min Rain = 0
KEN1 140637Z 17009KT 09/08 A3013 RMK A01 T00880080  RH  095%=      5-min Rain = 0
KEN1 140638Z 17009KT 09/08 A3013 RMK A01 T00880080  RH  095%=      5-min Rain = 0
KEN1 140639Z 17009KT 09/08 A3013 RMK A01 T00880080  RH  095%=      5-min Rain = 0
KEN1 140640Z 17009KT 09/08 A3013 RMK A01 T00880080  RH  095%=      5-min Rain = 0
KEN1 140641Z 17009KT 09/08 A3013 RMK A01 T00880081  RH  095%=      5-min Rain = 0
KEN1 140642Z 17010KT 09/08 A3012 RMK A01 T00890081  RH  095%=      5-min Rain = 0
KEN1 140643Z 17010KT 09/08 A3012 RMK A01 T00890081  RH  095%=      5-min Rain = 0
KEN1 140644Z 17011KT 09/08 A3012 RMK A01 T00900081  RH  095%=      5-min Rain = 0
KEN1 140645Z 18011KT 09/08 A3012 RMK A01 T00900082  RH  095%=      5-min Rain = 0
KEN1 140646Z 18010KT 09/08 A3012 RMK A01 T00900082  RH  095%=      5-min Rain = 0
KEN1 140647Z 18011KT 09/08 A3012 RMK A01 T00910082  RH  094%=      5-min Rain = 0
KEN1 140648Z 18011KT 09/08 A3012 RMK A01 T00910083  RH  094%=      5-min Rain = 0
KEN1 140649Z 18010KT 09/08 A3012 RMK A01 T00910082  RH  094%=      5-min Rain = 0
KEN1 140650Z 18010KT 09/08 A3012 RMK A01 T00910082  RH  094%=      5-min Rain = 0
KEN1 140651Z 18009KT 09/08 A3012 RMK A01 T00910082  RH  094%=      5-min Rain = 0
KEN1 140652Z 18009KT 09/08 A3012 RMK A01 T00910082  RH  094%=      5-min Rain = 0
KEN1 140653Z 17009KT 09/08 A3012 RMK A01 T00910082  RH  094%=      5-min Rain = 0
KEN1 140654Z 17009KT 09/08 A3012 RMK A01 T00900081  RH  094%=      5-min Rain = 0
KEN1 140655Z 16009KT 09/08 A3012 RMK A01 T00900081  RH  094%=      5-min Rain = 0
KEN1 140656Z 16009KT 09/08 A3013 RMK A01 T00890080  RH  094%=      5-min Rain = 0
KEN1 140657Z 16008KT 09/08 A3013 RMK A01 T00890079  RH  094%=      5-min Rain = 0
KEN1 140658Z 16008KT 09/08 A3013 RMK A01 T00880079  RH  094%=      5-min Rain = 0
KEN1 140659Z 16008KT 09/08 A3012 RMK A01 T00880080  RH  095%=      5-min Rain = 0
KEN1 140700Z 16008KT 09/08 A3012 RMK A01 T00880080  RH  095%=      5-min Rain = 0
KEN1 140701Z 16008KT 09/08 A3012 RMK A01 T00880080  RH  094%=      5-min Rain = 0
KEN1 140702Z 16008KT 09/08 A3012 RMK A01 T00880079  RH  094%=      5-min Rain = 0
KEN1 140703Z 16008KT 09/08 A3012 RMK A01 T00870078  RH  094%=      5-min Rain = 0
KEN1 140704Z 17009KT 09/08 A3012 RMK A01 T00870078  RH  094%=      5-min Rain = 0
KEN1 140705Z 17009KT 09/08 A3012 RMK A01 T00860077  RH  094%=      5-min Rain = 0
KEN1 140706Z 17008KT 09/08 A3012 RMK A01 T00860077  RH  094%=      5-min Rain = 0
KEN1 140707Z 17008KT 09/08 A3012 RMK A01 T00860077  RH  094%=      5-min Rain = 0
KEN1 140708Z 17008KT 09/08 A3012 RMK A01 T00850076  RH  094%=      5-min Rain = 0
KEN1 140709Z 17009KT 09/08 A3012 RMK A01 T00850075  RH  094%=      5-min Rain = 0
KEN1 140710Z 17009KT 09/08 A3012 RMK A01 T00850076  RH  094%=      5-min Rain = 0
KEN1 140711Z 17009KT 09/08 A3012 RMK A01 T00850076  RH  094%=      5-min Rain = 0
KEN1 140712Z 17009KT 09/08 A3012 RMK A01 T00850076  RH  094%=      5-min Rain = 0
KEN1 140713Z 17009KT 09/08 A3012 RMK A01 T00850075  RH  093%=      5-min Rain = 0
KEN1 140714Z 17009KT 08/07 A3012 RMK A01 T00840074  RH  094%=      5-min Rain = 0
KEN1 140715Z 17009KT 09/08 A3012 RMK A01 T00850075  RH  094%=      5-min Rain = 0
KEN1 140716Z 17009KT 08/08 A3012 RMK A01 T00840075  RH  094%=      5-min Rain = 0
KEN1 140717Z 17009KT 09/08 A3011 RMK A01 T00850075  RH  094%=      5-min Rain = 0
KEN1 140718Z 17009KT 08/07 A3011 RMK A01 T00840074  RH  093%=      5-min Rain = 0
KEN1 140719Z 16008KT 08/07 A3011 RMK A01 T00840074  RH  094%=      5-min Rain = 0
KEN1 140720Z 16008KT 08/07 A3011 RMK A01 T00830073  RH  093%=      5-min Rain = 0
KEN1 140721Z 16008KT 08/07 A3011 RMK A01 T00820072  RH  093%=      5-min Rain = 0
KEN1 140722Z 16008KT 08/07 A3011 RMK A01 T00800070  RH  093%=      5-min Rain = 0
KEN1 140723Z 15008KT 08/07 A3011 RMK A01 T00790070  RH  094%=      5-min Rain = 0
KEN1 140724Z 15008KT 08/07 A3011 RMK A01 T00780070  RH  094%=      5-min Rain = 0
KEN1 140725Z 15008KT 08/07 A3011 RMK A01 T00780069  RH  094%=      5-min Rain = 0
KEN1 140726Z 16007KT 08/07 A3011 RMK A01 T00770069  RH  095%=      5-min Rain = 0
KEN1 140727Z 16008KT 08/07 A3011 RMK A01 T00770070  RH  095%=      5-min Rain = 0
KEN1 140728Z 16008KT 08/07 A3011 RMK A01 T00770070  RH  095%=      5-min Rain = 0
KEN1 140729Z 16008KT 08/07 A3011 RMK A01 T00770070  RH  096%=      5-min Rain = 0
KEN1 140730Z 17007KT 08/07 A3011 RMK A01 T00770071  RH  096%=      5-min Rain = 0
KEN1 140731Z 17008KT 08/07 A3011 RMK A01 T00770071  RH  096%=      5-min Rain = 0
KEN1 140732Z 17008KT 08/07 A3011 RMK A01 T00780072  RH  096%=      5-min Rain = 0
KEN1 140733Z 17008KT 08/07 A3011 RMK A01 T00780072  RH  096%=      5-min Rain = 0
KEN1 140734Z 17008KT 08/07 A3011 RMK A01 T00790073  RH  096%=      5-min Rain = 0
KEN1 140735Z 17008KT 08/07 A3011 RMK A01 T00790073  RH  096%=      5-min Rain = 0
KEN1 140736Z 17008KT 08/07 A3011 RMK A01 T00790073  RH  096%=      5-min Rain = 0
KEN1 140737Z 17008KT 08/07 A3011 RMK A01 T00800073  RH  095%=      5-min Rain = 0
KEN1 140738Z 17008KT 08/07 A3011 RMK A01 T00790072  RH  095%=      5-min Rain = 0
KEN1 140739Z 17009KT 08/07 A3011 RMK A01 T00790072  RH  095%=      5-min Rain = 0
KEN1 140740Z 17009KT 08/07 A3011 RMK A01 T00790071  RH  095%=      5-min Rain = 0
KEN1 140741Z 17009KT 08/07 A3011 RMK A01 T00780071  RH  095%=      5-min Rain = 0
KEN1 140742Z 17009KT 08/07 A3011 RMK A01 T00780071  RH  095%=      5-min Rain = 0
KEN1 140743Z 17009KT 08/07 A3011 RMK A01 T00790072  RH  095%=      5-min Rain = 0
KEN1 140744Z 17009KT 08/07 A3011 RMK A01 T00780072  RH  095%=      5-min Rain = 0
KEN1 140745Z 17009KT 08/07 A3011 RMK A01 T00780071  RH  095%=      5-min Rain = 0
KEN1 140746Z 17009KT 08/07 A3011 RMK A01 T00780071  RH  096%=      5-min Rain = 0
KEN1 140747Z 17009KT 08/07 A3011 RMK A01 T00780071  RH  096%=      5-min Rain = 0
KEN1 140748Z 17009KT 08/07 A3011 RMK A01 T00780071  RH  095%=      5-min Rain = 0
KEN1 140749Z 17009KT 08/07 A3011 RMK A01 T00780071  RH  095%=      5-min Rain = 0
KEN1 140750Z 17009KT 08/07 A3011 RMK A01 T00770071  RH  095%=      5-min Rain = 0
KEN1 140751Z 17008KT 08/07 A3011 RMK A01 T00780071  RH  095%=      5-min Rain = 0
KEN1 140752Z 17008KT 08/07 A3011 RMK A01 T00770070  RH  095%=      5-min Rain = 0
KEN1 140753Z 17008KT 08/07 A3011 RMK A01 T00770070  RH  095%=      5-min Rain = 0
KEN1 140754Z 17008KT 08/07 A3011 RMK A01 T00770069  RH  095%=      5-min Rain = 0
KEN1 140755Z 17008KT 08/07 A3011 RMK A01 T00770069  RH  095%=      5-min Rain = 0
KEN1 140756Z 17008KT 08/07 A3011 RMK A01 T00770069  RH  095%=      5-min Rain = 0
KEN1 140757Z 17008KT 08/07 A3011 RMK A01 T00760069  RH  095%=      5-min Rain = 0
KEN1 140758Z 16008KT 08/07 A3011 RMK A01 T00760068  RH  095%=      5-min Rain = 0
KEN1 140759Z 17008KT 08/07 A3011 RMK A01 T00760068  RH  095%=      5-min Rain = 0
KEN1 140800Z 17009KT 08/07 A3011 RMK A01 T00760068  RH  095%=      5-min Rain = 0
KEN1 140801Z 17009KT 08/07 A3011 RMK A01 T00750068  RH  095%=      5-min Rain = 0
KEN1 140802Z 17009KT 08/07 A3011 RMK A01 T00750068  RH  095%=      5-min Rain = 0
KEN1 140803Z 17009KT 08/07 A3011 RMK A01 T00750068  RH  095%=      5-min Rain = 0
KEN1 140804Z 17009KT 08/07 A3011 RMK A01 T00760069  RH  096%=      5-min Rain = 0
KEN1 140805Z 17009KT 08/07 A3011 RMK A01 T00760069  RH  096%=      5-min Rain = 0
KEN1 140806Z 16009KT 08/07 A3011 RMK A01 T00760069  RH  096%=      5-min Rain = 0
KEN1 140807Z 16009KT 08/07 A3011 RMK A01 T00760070  RH  096%=      5-min Rain = 0
KEN1 140808Z 16008KT 08/07 A3011 RMK A01 T00770070  RH  096%=      5-min Rain = 0
KEN1 140809Z 16008KT 08/07 A3011 RMK A01 T00770071  RH  096%=      5-min Rain = 0
KEN1 140810Z 16008KT 08/07 A3011 RMK A01 T00770071  RH  095%=      5-min Rain = 0
KEN1 140811Z 16007KT 08/07 A3011 RMK A01 T00780071  RH  095%=      5-min Rain = 0
KEN1 140812Z 16007KT 08/07 A3011 RMK A01 T00770070  RH  095%=      5-min Rain = 0
KEN1 140813Z 16007KT 08/07 A3011 RMK A01 T00770069  RH  095%=      5-min Rain = 0
KEN1 140814Z 16007KT 08/07 A3011 RMK A01 T00760069  RH  095%=      5-min Rain = 0
KEN1 140815Z 16007KT 08/07 A3011 RMK A01 T00760069  RH  095%=      5-min Rain = 0
KEN1 140816Z 16007KT 08/07 A3011 RMK A01 T00750068  RH  095%=      5-min Rain = 0
KEN1 140817Z 16007KT 08/07 A3011 RMK A01 T00750068  RH  095%=      5-min Rain = 0
KEN1 140818Z 16008KT 08/07 A3011 RMK A01 T00750068  RH  095%=      5-min Rain = 0
KEN1 140819Z 17008KT 08/07 A3011 RMK A01 T00750068  RH  095%=      5-min Rain = 0
KEN1 140820Z 16007KT 08/07 A3011 RMK A01 T00750068  RH  095%=      5-min Rain = 0
KEN1 140821Z 17008KT 08/07 A3011 RMK A01 T00750068  RH  095%=      5-min Rain = 0
KEN1 140822Z 17008KT 08/07 A3011 RMK A01 T00750068  RH  095%=      5-min Rain = 0
KEN1 140823Z 17008KT 08/07 A3011 RMK A01 T00750068  RH  095%=      5-min Rain = 0
KEN1 140824Z 17008KT 08/07 A3011 RMK A01 T00750068  RH  096%=      5-min Rain = 0
KEN1 140825Z 17008KT 08/07 A3011 RMK A01 T00750068  RH  095%=      5-min Rain = 0
KEN1 140826Z 17008KT 08/07 A3011 RMK A01 T00750068  RH  095%=      5-min Rain = 0
KEN1 140827Z 17008KT 08/07 A3011 RMK A01 T00750068  RH  095%=      5-min Rain = 0
KEN1 140828Z 17008KT 08/07 A3011 RMK A01 T00750068  RH  095%=      5-min Rain = 0
KEN1 140829Z 17008KT 07/07 A301 RMK A01 T00740068  RH  095%=      5-min Rain = 0
KEN1 140830Z 17008KT 07/07 A301 RMK A01 T00740067  RH  095%=      5-min Rain = 0
KEN1 140831Z 17008KT 07/07 A301 RMK A01 T00740067  RH  095%=      5-min Rain = 0
KEN1 140832Z 17008KT 07/07 A301 RMK A01 T00740067  RH  096%=      5-min Rain = 0
KEN1 140833Z 17009KT 07/07 A301 RMK A01 T00730067  RH  096%=      5-min Rain = 0
KEN1 140834Z 17009KT 07/07 A301 RMK A01 T00730066  RH  096%=      5-min Rain = 0
KEN1 140835Z 18009KT 07/07 A301 RMK A01 T00730066  RH  096%=      5-min Rain = 0
KEN1 140836Z 17009KT 07/07 A301 RMK A01 T00730067  RH  096%=      5-min Rain = 0
KEN1 140837Z 17009KT 07/07 A301 RMK A01 T00740067  RH  096%=      5-min Rain = 0
KEN1 140838Z 17009KT 07/07 A301 RMK A01 T00740068  RH  096%=      5-min Rain = 0
KEN1 140839Z 17009KT 07/07 A301 RMK A01 T00740067  RH  095%=      5-min Rain = 0
KEN1 140840Z 17009KT 07/07 A301 RMK A01 T00740067  RH  095%=      5-min Rain = 0
KEN1 140841Z 17009KT 07/07 A301 RMK A01 T00740066  RH  095%=      5-min Rain = 0
KEN1 140842Z 17009KT 07/07 A301 RMK A01 T00730066  RH  095%=      5-min Rain = 0
KEN1 140843Z 17009KT 07/07 A301 RMK A01 T00730066  RH  095%=      5-min Rain = 0
KEN1 140844Z 17009KT 07/07 A301 RMK A01 T00730066  RH  095%=      5-min Rain = 0
KEN1 140845Z 17009KT 07/07 A301 RMK A01 T00730066  RH  095%=      5-min Rain = 0
KEN1 140846Z 17009KT 07/07 A301 RMK A01 T00730066  RH  095%=      5-min Rain = 0
KEN1 140847Z 17008KT 07/07 A301 RMK A01 T00730066  RH  095%=      5-min Rain = 0
KEN1 140848Z 17009KT 07/07 A301 RMK A01 T00730066  RH  095%=      5-min Rain = 0
KEN1 140849Z 17009KT 07/07 A301 RMK A01 T00730066  RH  095%=      5-min Rain = 0
KEN1 140850Z 17008KT 07/07 A301 RMK A01 T00730066  RH  095%=      5-min Rain = 0
KEN1 140851Z 18008KT 07/07 A301 RMK A01 T00730066  RH  095%=      5-min Rain = 0
KEN1 140852Z 17008KT 07/07 A301 RMK A01 T00740066  RH  095%=      5-min Rain = 0
KEN1 140853Z 17008KT 07/07 A301 RMK A01 T00740066  RH  095%=      5-min Rain = 0
KEN1 140854Z 17008KT 07/07 A301 RMK A01 T00740066  RH  095%=      5-min Rain = 0
KEN1 140855Z 17007KT 07/07 A301 RMK A01 T00740066  RH  094%=      5-min Rain = 0
KEN1 140856Z 17007KT 07/07 A301 RMK A01 T00740065  RH  094%=      5-min Rain = 0
KEN1 140857Z 17007KT 07/06 A301 RMK A01 T00730064  RH  094%=      5-min Rain = 0
KEN1 140858Z 17008KT 07/06 A3009 RMK A01 T00720063  RH  094%=      5-min Rain = 0
KEN1 140859Z 17009KT 07/06 A3009 RMK A01 T00710062  RH  094%=      5-min Rain = 0
KEN1 140900Z 16010KT 07/06 A3009 RMK A01 T00700061  RH  094%=      5-min Rain = 0
KEN1 140901Z 16010KT 07/06 A3009 RMK A01 T00690061  RH  095%=      5-min Rain = 0
KEN1 140902Z 16010KT 07/06 A3009 RMK A01 T00690061  RH  095%=      5-min Rain = 0
KEN1 140903Z 16010KT 07/06 A3009 RMK A01 T00690062  RH  095%=      5-min Rain = 0
KEN1 140904Z 15009KT 07/06 A3009 RMK A01 T00690062  RH  096%=      5-min Rain = 0
KEN1 140905Z 15009KT 07/06 A3009 RMK A01 T00690063  RH  096%=      5-min Rain = 0
KEN1 140906Z 16009KT 07/06 A3009 RMK A01 T00700064  RH  096%=      5-min Rain = 0
KEN1 140907Z 16009KT 07/07 A3009 RMK A01 T00700065  RH  096%=      5-min Rain = 0
KEN1 140908Z 16009KT 07/07 A3009 RMK A01 T00700065  RH  097%=      5-min Rain = 0
KEN1 140909Z 16010KT 07/07 A3009 RMK A01 T00700065  RH  097%=      5-min Rain = 0
KEN1 140910Z 16010KT 07/07 A3009 RMK A01 T00710066  RH  097%=      5-min Rain = 0
KEN1 140911Z 16009KT 07/07 A3009 RMK A01 T00710066  RH  097%=      5-min Rain = 0
KEN1 140912Z 16009KT 07/07 A3009 RMK A01 T00720067  RH  097%=      5-min Rain = 0
KEN1 140913Z 16009KT 07/07 A3009 RMK A01 T00730068  RH  097%=      5-min Rain = 0
KEN1 140914Z 16009KT 07/07 A3009 RMK A01 T00730068  RH  097%=      5-min Rain = 0
KEN1 140915Z 16009KT 07/07 A3009 RMK A01 T00730068  RH  097%=      5-min Rain = 0
KEN1 140916Z 16009KT 07/07 A3009 RMK A01 T00740068  RH  096%=      5-min Rain = 0
KEN1 140917Z 16009KT 07/07 A3009 RMK A01 T00740068  RH  096%=      5-min Rain = 0
KEN1 140918Z 16009KT 07/07 A3009 RMK A01 T00740068  RH  096%=      5-min Rain = 0
KEN1 140919Z 16009KT 07/07 A3009 RMK A01 T00740068  RH  096%=      5-min Rain = 0
KEN1 140920Z 16009KT 07/07 A3009 RMK A01 T00730067  RH  096%=      5-min Rain = 0
KEN1 140921Z 16009KT 07/07 A3009 RMK A01 T00730067  RH  096%=      5-min Rain = 0
KEN1 140922Z 16009KT 07/07 A3009 RMK A01 T00740068  RH  096%=      5-min Rain = 0
KEN1 140923Z 16009KT 07/07 A3009 RMK A01 T00730068  RH  096%=      5-min Rain = 0
KEN1 140924Z 16009KT 07/07 A3009 RMK A01 T00730068  RH  096%=      5-min Rain = 0
KEN1 140925Z 16008KT 07/07 A3009 RMK A01 T00730067  RH  096%=      5-min Rain = 0
KEN1 140926Z 16009KT 07/07 A3009 RMK A01 T00730067  RH  096%=      5-min Rain = 0
KEN1 140927Z 16008KT 07/07 A3009 RMK A01 T00730067  RH  096%=      5-min Rain = 0
KEN1 140928Z 16008KT 07/07 A3009 RMK A01 T00730067  RH  096%=      5-min Rain = 0
KEN1 140929Z 17008KT 07/07 A3009 RMK A01 T00730067  RH  096%=      5-min Rain = 0
KEN1 140930Z 17008KT 07/07 A3009 RMK A01 T00720066  RH  096%=      5-min Rain = 0
KEN1 140931Z 17008KT 07/07 A3009 RMK A01 T00720066  RH  096%=      5-min Rain = 0
KEN1 140932Z 17008KT 07/07 A3009 RMK A01 T00710065  RH  095%=      5-min Rain = 0
KEN1 140933Z 17008KT 07/07 A3009 RMK A01 T00720065  RH  095%=      5-min Rain = 0
KEN1 140934Z 17008KT 07/06 A3009 RMK A01 T00710064  RH  095%=      5-min Rain = 0
KEN1 140935Z 17008KT 07/06 A3009 RMK A01 T00710064  RH  095%=      5-min Rain = 0
KEN1 140936Z 17008KT 07/06 A3009 RMK A01 T00710064  RH  095%=      5-min Rain = 0
KEN1 140937Z 17008KT 07/06 A3009 RMK A01 T00710064  RH  095%=      5-min Rain = 0
KEN1 140938Z 17008KT 07/06 A3009 RMK A01 T00710063  RH  095%=      5-min Rain = 0
KEN1 140939Z 17008KT 07/06 A3009 RMK A01 T00720064  RH  095%=      5-min Rain = 0
KEN1 140940Z 17009KT 07/06 A3009 RMK A01 T00710063  RH  095%=      5-min Rain = 0
KEN1 140941Z 17009KT 07/06 A3009 RMK A01 T00720064  RH  094%=      5-min Rain = 0
KEN1 140942Z 17008KT 07/07 A3009 RMK A01 T00730065  RH  094%=      5-min Rain = 0
KEN1 140943Z 17009KT 07/06 A3009 RMK A01 T00740064  RH  094%=      5-min Rain = 0
KEN1 140944Z 17009KT 07/06 A3009 RMK A01 T00740064  RH  094%=      5-min Rain = 0
KEN1 140945Z 17009KT 07/06 A3009 RMK A01 T00730064  RH  094%=      5-min Rain = 0
KEN1 140946Z 17008KT 07/06 A3008 RMK A01 T00730063  RH  093%=      5-min Rain = 0
KEN1 140947Z 17008KT 07/06 A3008 RMK A01 T00730063  RH  093%=      5-min Rain = 0
KEN1 140948Z 18008KT 07/06 A3008 RMK A01 T00730063  RH  093%=      5-min Rain = 0
KEN1 140949Z 17009KT 07/06 A3008 RMK A01 T00730063  RH  093%=      5-min Rain = 0
KEN1 140950Z 18009KT 07/06 A3008 RMK A01 T00730062  RH  093%=      5-min Rain = 0
KEN1 140951Z 18009KT 07/06 A3008 RMK A01 T00720062  RH  093%=      5-min Rain = 0
KEN1 140952Z 17009KT 07/06 A3008 RMK A01 T00730062  RH  093%=      5-min Rain = 0
KEN1 140953Z 17008KT 07/06 A3008 RMK A01 T00720062  RH  093%=      5-min Rain = 0
KEN1 140954Z 17008KT 07/06 A3008 RMK A01 T00720062  RH  093%=      5-min Rain = 0
KEN1 140955Z 18009KT 07/06 A3008 RMK A01 T00720062  RH  093%=      5-min Rain = 0
KEN1 140956Z 17008KT 07/06 A3008 RMK A01 T00720062  RH  093%=      5-min Rain = 0
KEN1 140957Z 18008KT 07/06 A3008 RMK A01 T00720061  RH  093%=      5-min Rain = 0
KEN1 140958Z 18008KT 07/06 A3008 RMK A01 T00720061  RH  093%=      5-min Rain = 0
KEN1 140959Z 18008KT 07/06 A3008 RMK A01 T00720062  RH  093%=      5-min Rain = 0
KEN1 141000Z 18008KT 07/06 A3008 RMK A01 T00710061  RH  093%=      5-min Rain = 0
KEN1 141001Z 18009KT 07/06 A3008 RMK A01 T00710061  RH  093%=      5-min Rain = 0
KEN1 141002Z 18009KT 07/06 A3008 RMK A01 T00700061  RH  094%=      5-min Rain = 0
KEN1 141003Z 19010KT 07/06 A3008 RMK A01 T00700061  RH  094%=      5-min Rain = 0
KEN1 141004Z 19010KT 07/06 A3008 RMK A01 T00700061  RH  094%=      5-min Rain = 0
KEN1 141005Z 19010KT 07/06 A3008 RMK A01 T00700061  RH  094%=      5-min Rain = 0
KEN1 141006Z 19010KT 07/06 A3008 RMK A01 T00710062  RH  094%=      5-min Rain = 0
KEN1 141007Z 19010KT 07/06 A3008 RMK A01 T00730064  RH  095%=      5-min Rain = 0
KEN1 141008Z 19010KT 07/07 A3008 RMK A01 T00740066  RH  094%=      5-min Rain = 0
KEN1 141009Z 19010KT 08/07 A3008 RMK A01 T00750066  RH  094%=      5-min Rain = 0
KEN1 141010Z 19010KT 08/07 A3008 RMK A01 T00760067  RH  094%=      5-min Rain = 0
KEN1 141011Z 19010KT 08/07 A3007 RMK A01 T00770067  RH  094%=      5-min Rain = 0
KEN1 141012Z 19010KT 08/07 A3007 RMK A01 T00780068  RH  094%=      5-min Rain = 0
KEN1 141013Z 19010KT 08/07 A3007 RMK A01 T00790069  RH  093%=      5-min Rain = 0
KEN1 141014Z 19011KT 08/07 A3007 RMK A01 T00790069  RH  093%=      5-min Rain = 0
KEN1 141015Z 19011KT 08/07 A3007 RMK A01 T00800070  RH  093%=      5-min Rain = 0
KEN1 141016Z 19010KT 08/07 A3007 RMK A01 T00800069  RH  093%=      5-min Rain = 0
KEN1 141017Z 19010KT 08/07 A3007 RMK A01 T00800069  RH  093%=      5-min Rain = 0
KEN1 141018Z 19010KT 08/07 A3007 RMK A01 T00800069  RH  093%=      5-min Rain = 0
KEN1 141019Z 19010KT 08/07 A3007 RMK A01 T00800069  RH  093%=      5-min Rain = 0
KEN1 141020Z 19010KT 08/07 A3007 RMK A01 T00790068  RH  093%=      5-min Rain = 0
KEN1 141021Z 19010KT 08/07 A3007 RMK A01 T00790069  RH  093%=      5-min Rain = 0
KEN1 141022Z 19010KT 08/07 A3007 RMK A01 T00790069  RH  093%=      5-min Rain = 0
KEN1 141023Z 19010KT 08/07 A3007 RMK A01 T00790069  RH  093%=      5-min Rain = 0
KEN1 141024Z 19010KT 08/07 A3007 RMK A01 T00790069  RH  093%=      5-min Rain = 0
KEN1 141025Z 18010KT 08/07 A3007 RMK A01 T00790069  RH  093%=      5-min Rain = 0
KEN1 141026Z 18010KT 08/07 A3007 RMK A01 T00790069  RH  093%=      5-min Rain = 0
KEN1 141027Z 19010KT 08/07 A3007 RMK A01 T00790069  RH  093%=      5-min Rain = 0
KEN1 141028Z 18010KT 08/07 A3007 RMK A01 T00790069  RH  093%=      5-min Rain = 0
KEN1 141029Z 18010KT 08/07 A3007 RMK A01 T00790069  RH  093%=      5-min Rain = 0
KEN1 141030Z 18009KT 08/07 A3007 RMK A01 T00790068  RH  093%=      5-min Rain = 0
KEN1 141031Z 19009KT 08/07 A3007 RMK A01 T00780069  RH  094%=      5-min Rain = 0
KEN1 141032Z 18010KT 08/07 A3007 RMK A01 T00790069  RH  094%=      5-min Rain = 0
KEN1 141033Z 18010KT 08/07 A3007 RMK A01 T00790069  RH  093%=      5-min Rain = 0
KEN1 141034Z 18009KT 08/07 A3007 RMK A01 T00790068  RH  093%=      5-min Rain = 0
KEN1 141035Z 18008KT 08/07 A3007 RMK A01 T00780067  RH  093%=      5-min Rain = 0
KEN1 141036Z 18008KT 08/07 A3007 RMK A01 T00770066  RH  093%=      5-min Rain = 0
KEN1 141037Z 17007KT 08/07 A3007 RMK A01 T00760066  RH  093%=      5-min Rain = 0
KEN1 141038Z 17008KT 07/06 A3007 RMK A01 T00740063  RH  093%=      5-min Rain = 0
KEN1 141039Z 17008KT 07/06 A3007 RMK A01 T00720061  RH  093%=      5-min Rain = 0
KEN1 141040Z 18008KT 07/06 A3007 RMK A01 T00710061  RH  093%=      5-min Rain = 0
KEN1 141041Z 17008KT 07/06 A3007 RMK A01 T00710062  RH  094%=      5-min Rain = 0
KEN1 141042Z 18008KT 07/06 A3007 RMK A01 T00720063  RH  094%=      5-min Rain = 0
KEN1 141043Z 18009KT 07/06 A3007 RMK A01 T00730064  RH  094%=      5-min Rain = 0
KEN1 141044Z 18009KT 08/07 A3007 RMK A01 T00750065  RH  094%=      5-min Rain = 0
KEN1 141045Z 18009KT 08/07 A3007 RMK A01 T00750065  RH  093%=      5-min Rain = 0
KEN1 141046Z 18009KT 08/07 A3007 RMK A01 T00760065  RH  093%=      5-min Rain = 0
KEN1 141047Z 18008KT 08/07 A3007 RMK A01 T00770065  RH  093%=      5-min Rain = 0
KEN1 141048Z 18008KT 08/07 A3007 RMK A01 T00770065  RH  092%=      5-min Rain = 0
KEN1 141049Z 18008KT 08/07 A3007 RMK A01 T00770065  RH  092%=      5-min Rain = 0
KEN1 141050Z 18009KT 08/07 A3007 RMK A01 T00770065  RH  092%=      5-min Rain = 0
KEN1 141051Z 18008KT 08/07 A3007 RMK A01 T00770065  RH  092%=      5-min Rain = 0
KEN1 141052Z 18009KT 08/07 A3007 RMK A01 T00780065  RH  091%=      5-min Rain = 0
KEN1 141053Z 18008KT 08/06 A3007 RMK A01 T00760063  RH  091%=      5-min Rain = 0
KEN1 141054Z 18008KT 08/06 A3007 RMK A01 T00750062  RH  091%=      5-min Rain = 0
KEN1 141055Z 18009KT 08/06 A3007 RMK A01 T00750062  RH  092%=      5-min Rain = 0
KEN1 141056Z 18009KT 08/06 A3007 RMK A01 T00750062  RH  092%=      5-min Rain = 0
KEN1 141057Z 18010KT 08/06 A3007 RMK A01 T00750062  RH  092%=      5-min Rain = 0
KEN1 141058Z 18010KT 08/06 A3007 RMK A01 T00750063  RH  092%=      5-min Rain = 0
KEN1 141059Z 18010KT 08/06 A3007 RMK A01 T00760064  RH  092%=      5-min Rain = 0
KEN1 141100Z 18010KT 08/06 A3007 RMK A01 T00770064  RH  091%=      5-min Rain = 0
KEN1 141101Z 18010KT 08/06 A3007 RMK A01 T00780064  RH  091%=      5-min Rain = 0
KEN1 141102Z 18010KT 08/06 A3007 RMK A01 T00780064  RH  091%=      5-min Rain = 0
KEN1 141103Z 18009KT 08/06 A3007 RMK A01 T00780063  RH  090%=      5-min Rain = 0
KEN1 141104Z 18010KT 08/06 A3007 RMK A01 T00770062  RH  090%=      5-min Rain = 0
KEN1 141105Z 18009KT 08/06 A3007 RMK A01 T00750060  RH  090%=      5-min Rain = 0
KEN1 141106Z 17009KT 07/06 A3007 RMK A01 T00740059  RH  091%=      5-min Rain = 0
KEN1 141107Z 17009KT 07/06 A3007 RMK A01 T00730059  RH  091%=      5-min Rain = 0
KEN1 141108Z 17009KT 07/06 A3007 RMK A01 T00720058  RH  091%=      5-min Rain = 0
KEN1 141109Z 17009KT 07/06 A3007 RMK A01 T00700057  RH  091%=      5-min Rain = 0
KEN1 141110Z 17009KT 07/06 A3006 RMK A01 T00690057  RH  092%=      5-min Rain = 0
KEN1 141111Z 17009KT 07/06 A3006 RMK A01 T00690057  RH  092%=      5-min Rain = 0
KEN1 141112Z 17009KT 07/06 A3006 RMK A01 T00690057  RH  092%=      5-min Rain = 0
KEN1 141113Z 17009KT 07/06 A3006 RMK A01 T00690057  RH  092%=      5-min Rain = 0
KEN1 141114Z 17009KT 07/06 A3006 RMK A01 T00690057  RH  092%=      5-min Rain = 0
KEN1 141115Z 17009KT 07/06 A3006 RMK A01 T00690057  RH  092%=      5-min Rain = 0
KEN1 141116Z 17010KT 07/06 A3006 RMK A01 T00680057  RH  092%=      5-min Rain = 0
KEN1 141117Z 17009KT 07/06 A3006 RMK A01 T00690057  RH  092%=      5-min Rain = 0
KEN1 141118Z 17009KT 07/06 A3006 RMK A01 T00690057  RH  092%=      5-min Rain = 0
KEN1 141119Z 17009KT 07/06 A3006 RMK A01 T00680056  RH  092%=      5-min Rain = 0
KEN1 141120Z 17009KT 07/06 A3006 RMK A01 T00680056  RH  092%=      5-min Rain = 0
KEN1 141121Z 17009KT 07/06 A3006 RMK A01 T00680056  RH  092%=      5-min Rain = 0
KEN1 141122Z 17008KT 07/06 A3006 RMK A01 T00680056  RH  092%=      5-min Rain = 0
KEN1 141123Z 16008KT 07/06 A3006 RMK A01 T00680055  RH  092%=      5-min Rain = 0
KEN1 141124Z 17008KT 07/06 A3006 RMK A01 T00670055  RH  092%=      5-min Rain = 0
KEN1 141125Z 17008KT 07/06 A3006 RMK A01 T00670055  RH  092%=      5-min Rain = 0
KEN1 141126Z 17008KT 07/05 A3006 RMK A01 T00660054  RH  092%=      5-min Rain = 0
KEN1 141127Z 17008KT 07/06 A3006 RMK A01 T00660055  RH  092%=      5-min Rain = 0
KEN1 141128Z 17009KT 07/06 A3006 RMK A01 T00660055  RH  092%=      5-min Rain = 0
KEN1 141129Z 17008KT 07/05 A3006 RMK A01 T00660054  RH  092%=      5-min Rain = 0
KEN1 141130Z 17008KT 07/05 A3006 RMK A01 T00660054  RH  092%=      5-min Rain = 0
KEN1 141131Z 17009KT 07/05 A3006 RMK A01 T00660054  RH  092%=      5-min Rain = 0
KEN1 141132Z 17008KT 07/05 A3006 RMK A01 T00660054  RH  092%=      5-min Rain = 0
KEN1 141133Z 17008KT 07/05 A3006 RMK A01 T00660054  RH  092%=      5-min Rain = 0
KEN1 141134Z 17008KT 07/05 A3006 RMK A01 T00660054  RH  092%=      5-min Rain = 0
KEN1 141135Z 17008KT 07/05 A3006 RMK A01 T00650052  RH  092%=      5-min Rain = 0
KEN1 141136Z 17008KT 06/05 A3006 RMK A01 T00640052  RH  092%=      5-min Rain = 0
KEN1 141137Z 18008KT 06/05 A3006 RMK A01 T00630051  RH  092%=      5-min Rain = 0
KEN1 141138Z 18008KT 06/05 A3006 RMK A01 T00630050  RH  092%=      5-min Rain = 0
KEN1 141139Z 18008KT 06/05 A3006 RMK A01 T00620050  RH  092%=      5-min Rain = 0
KEN1 141140Z 18008KT 06/05 A3006 RMK A01 T00610049  RH  092%=      5-min Rain = 0
KEN1 141141Z 18009KT 06/05 A3006 RMK A01 T00610049  RH  093%=      5-min Rain = 0
KEN1 141142Z 18008KT 06/05 A3006 RMK A01 T00600050  RH  093%=      5-min Rain = 0
KEN1 141143Z 18008KT 06/05 A3006 RMK A01 T00610050  RH  093%=      5-min Rain = 0
KEN1 141144Z 18008KT 06/05 A3006 RMK A01 T00600049  RH  092%=      5-min Rain = 0
KEN1 141145Z 18008KT 06/05 A3006 RMK A01 T00600049  RH  093%=      5-min Rain = 0
KEN1 141146Z 18008KT 06/05 A3006 RMK A01 T00600049  RH  093%=      5-min Rain = 0
KEN1 141147Z 18008KT 06/05 A3006 RMK A01 T00600049  RH  093%=      5-min Rain = 0
KEN1 141148Z 18008KT 06/05 A3006 RMK A01 T00590048  RH  093%=      5-min Rain = 0
KEN1 141149Z 18008KT 06/05 A3006 RMK A01 T00580047  RH  093%=      5-min Rain = 0
KEN1 141150Z 18008KT 06/05 A3006 RMK A01 T00570046  RH  093%=      5-min Rain = 0
KEN1 141151Z 18008KT 06/05 A3006 RMK A01 T00570046  RH  093%=      5-min Rain = 0
KEN1 141152Z 18008KT 06/05 A3006 RMK A01 T00560046  RH  093%=      5-min Rain = 0
KEN1 141153Z 18008KT 06/05 A3006 RMK A01 T00560046  RH  093%=      5-min Rain = 0
KEN1 141154Z 18008KT 06/05 A3006 RMK A01 T00560046  RH  093%=      5-min Rain = 0
KEN1 141155Z 18008KT 06/05 A3006 RMK A01 T00560046  RH  094%=      5-min Rain = 0
KEN1 141156Z 18008KT 06/05 A3006 RMK A01 T00560046  RH  093%=      5-min Rain = 0
KEN1 141157Z 18007KT 06/05 A3006 RMK A01 T00560045  RH  093%=      5-min Rain = 0
KEN1 141158Z 18008KT 06/05 A3006 RMK A01 T00550045  RH  093%=      5-min Rain = 0
KEN1 141159Z 18008KT 06/05 A3006 RMK A01 T00550045  RH  093%=      5-min Rain = 0
KEN1 141200Z 18007KT 05/04 A3006 RMK A01 T00540044  RH  093%=      5-min Rain = 0
KEN1 141201Z 18007KT 05/04 A3006 RMK A01 T00530043  RH  093%=      5-min Rain = 0
KEN1 141202Z 18007KT 05/04 A3006 RMK A01 T00530043  RH  094%=      5-min Rain = 0
KEN1 141203Z 18007KT 05/04 A3006 RMK A01 T00530044  RH  094%=      5-min Rain = 0
KEN1 141204Z 17006KT 05/04 A3006 RMK A01 T00530043  RH  094%=      5-min Rain = 0
KEN1 141205Z 17006KT 05/04 A3006 RMK A01 T00520044  RH  094%=      5-min Rain = 0
KEN1 141206Z 17006KT 05/04 A3006 RMK A01 T00520043  RH  094%=      5-min Rain = 0
KEN1 141207Z 17006KT 05/04 A3006 RMK A01 T00510041  RH  094%=      5-min Rain = 0
KEN1 141208Z 17006KT 05/04 A3006 RMK A01 T00490039  RH  093%=      5-min Rain = 0
KEN1 141209Z 17006KT 05/04 A3006 RMK A01 T00480038  RH  093%=      5-min Rain = 0
KEN1 141210Z 17006KT 05/04 A3006 RMK A01 T00480038  RH  094%=      5-min Rain = 0
KEN1 141211Z 17005KT 05/04 A3006 RMK A01 T00470039  RH  094%=      5-min Rain = 0
KEN1 141212Z 18005KT 05/04 A3006 RMK A01 T00470039  RH  095%=      5-min Rain = 0
KEN1 141213Z 18005KT 05/04 A3006 RMK A01 T00470040  RH  095%=      5-min Rain = 0
KEN1 141214Z 18004KT 05/04 A3006 RMK A01 T00470040  RH  095%=      5-min Rain = 0
KEN1 141215Z 18004KT 05/04 A3006 RMK A01 T00470039  RH  095%=      5-min Rain = 0
KEN1 141216Z 18004KT 05/04 A3006 RMK A01 T00470040  RH  095%=      5-min Rain = 0
KEN1 141217Z 18004KT 05/04 A3006 RMK A01 T00470040  RH  095%=      5-min Rain = 0
KEN1 141218Z 18004KT 05/04 A3006 RMK A01 T00480041  RH  095%=      5-min Rain = 0
KEN1 141219Z 18004KT 05/04 A3006 RMK A01 T00490042  RH  096%=      5-min Rain = 0
KEN1 141220Z 18004KT 05/04 A3006 RMK A01 T00500044  RH  096%=      5-min Rain = 0
KEN1 141221Z 17004KT 05/05 A3006 RMK A01 T00510045  RH  096%=      5-min Rain = 0
KEN1 141222Z 17004KT 05/05 A3006 RMK A01 T00530047  RH  096%=      5-min Rain = 0
KEN1 141223Z 17004KT 05/05 A3006 RMK A01 T00540046  RH  095%=      5-min Rain = 0
KEN1 141224Z 17003KT 06/05 A3006 RMK A01 T00550046  RH  094%=      5-min Rain = 0
KEN1 141225Z 17003KT 05/04 A3006 RMK A01 T00540044  RH  094%=      5-min Rain = 0
KEN1 141226Z 17003KT 05/05 A3006 RMK A01 T00540045  RH  094%=      5-min Rain = 0
KEN1 141227Z 17003KT 06/05 A3006 RMK A01 T00550048  RH  095%=      5-min Rain = 0
KEN1 141228Z 17003KT 06/05 A3006 RMK A01 T00580050  RH  094%=      5-min Rain = 0
KEN1 141229Z 18002KT 06/05 A3006 RMK A01 T00590049  RH  093%=      5-min Rain = 0
KEN1 141230Z 17003KT 06/05 A3006 RMK A01 T00590048  RH  093%=      5-min Rain = 0
KEN1 141231Z 17003KT 06/05 A3006 RMK A01 T00600048  RH  092%=      5-min Rain = 0
KEN1 141232Z 17003KT 06/05 A3006 RMK A01 T00590045  RH  091%=      5-min Rain = 0
KEN1 141233Z 17003KT 06/04 A3006 RMK A01 T00560041  RH  090%=      5-min Rain = 0
KEN1 141234Z 17003KT 05/04 A3006 RMK A01 T00530038  RH  090%=      5-min Rain = 0
KEN1 141235Z 17004KT 05/04 A3006 RMK A01 T00510037  RH  091%=      5-min Rain = 0
KEN1 141236Z 18003KT 05/04 A3006 RMK A01 T00490037  RH  092%=      5-min Rain = 0
KEN1 141237Z 17003KT 05/04 A3006 RMK A01 T00480036  RH  092%=      5-min Rain = 0
KEN1 141238Z 17003KT 05/04 A3006 RMK A01 T00480037  RH  093%=      5-min Rain = 0
KEN1 141239Z 16003KT 05/04 A3006 RMK A01 T00480038  RH  093%=      5-min Rain = 0
KEN1 141240Z 17003KT 05/04 A3006 RMK A01 T00480038  RH  093%=      5-min Rain = 0
KEN1 141241Z 16003KT 05/04 A3006 RMK A01 T00480038  RH  093%=      5-min Rain = 0
KEN1 141242Z 17003KT 05/04 A3006 RMK A01 T00480039  RH  093%=      5-min Rain = 0
KEN1 141243Z 17003KT 05/04 A3006 RMK A01 T00480039  RH  093%=      5-min Rain = 0
KEN1 141244Z 17003KT 05/04 A3006 RMK A01 T00490040  RH  094%=      5-min Rain = 0
KEN1 141245Z 18003KT 05/04 A3006 RMK A01 T00500042  RH  094%=      5-min Rain = 0
KEN1 141246Z 17004KT 05/04 A3006 RMK A01 T00510042  RH  094%=      5-min Rain = 0
KEN1 141247Z 16004KT 05/04 A3006 RMK A01 T00510041  RH  093%=      5-min Rain = 0
KEN1 141248Z 17004KT 05/04 A3006 RMK A01 T00510039  RH  092%=      5-min Rain = 0
KEN1 141249Z 16004KT 05/04 A3006 RMK A01 T00490037  RH  092%=      5-min Rain = 0
KEN1 141250Z 17005KT 05/04 A3006 RMK A01 T00480037  RH  092%=      5-min Rain = 0
KEN1 141251Z 16005KT 05/04 A3006 RMK A01 T00480037  RH  093%=      5-min Rain = 0
KEN1 141252Z 16005KT 05/04 A3006 RMK A01 T00470037  RH  093%=      5-min Rain = 0
KEN1 141253Z 17005KT 05/04 A3006 RMK A01 T00470037  RH  093%=      5-min Rain = 0
KEN1 141254Z 17005KT 05/04 A3006 RMK A01 T00470037  RH  093%=      5-min Rain = 0
KEN1 141255Z 17005KT 05/04 A3006 RMK A01 T00460037  RH  093%=      5-min Rain = 0
KEN1 141256Z 17005KT 05/04 A3006 RMK A01 T00460037  RH  093%=      5-min Rain = 0
KEN1 141257Z 17005KT 05/04 A3006 RMK A01 T00460036  RH  094%=      5-min Rain = 0
KEN1 141258Z 17005KT 05/04 A3006 RMK A01 T00460037  RH  094%=      5-min Rain = 0
KEN1 141259Z 17005KT 05/04 A3006 RMK A01 T00460037  RH  094%=      5-min Rain = 0
KEN1 141300Z 17005KT 05/04 A3006 RMK A01 T00460036  RH  094%=      5-min Rain = 0
KEN1 141301Z 17005KT 05/04 A3006 RMK A01 T00450036  RH  094%=      5-min Rain = 0
KEN1 141302Z 17004KT 05/04 A3006 RMK A01 T00450035  RH  094%=      5-min Rain = 0
KEN1 141303Z 17005KT 04/04 A3006 RMK A01 T00440035  RH  094%=      5-min Rain = 0
KEN1 141304Z 17005KT 04/04 A3006 RMK A01 T00440036  RH  094%=      5-min Rain = 0
KEN1 141305Z 18005KT 04/04 A3006 RMK A01 T00440036  RH  095%=      5-min Rain = 0
KEN1 141306Z 18005KT 05/04 A3006 RMK A01 T00450037  RH  095%=      5-min Rain = 0
KEN1 141307Z 19005KT 05/04 A3006 RMK A01 T00450037  RH  095%=      5-min Rain = 0
KEN1 141308Z 20005KT 05/04 A3006 RMK A01 T00460038  RH  095%=      5-min Rain = 0
KEN1 141309Z 20004KT 05/04 A3006 RMK A01 T00460038  RH  094%=      5-min Rain = 0
KEN1 141310Z 20004KT 05/04 A3006 RMK A01 T00460038  RH  094%=      5-min Rain = 0
KEN1 141311Z 20004KT 05/04 A3006 RMK A01 T00470039  RH  094%=      5-min Rain = 0
KEN1 141312Z 21004KT 05/04 A3006 RMK A01 T00480039  RH  094%=      5-min Rain = 0
KEN1 141313Z 20004KT 05/04 A3006 RMK A01 T00490039  RH  093%=      5-min Rain = 0
KEN1 141314Z 21004KT 05/04 A3006 RMK A01 T00500039  RH  093%=      5-min Rain = 0
KEN1 141315Z 21004KT 05/04 A3006 RMK A01 T00500038  RH  093%=      5-min Rain = 0
KEN1 141316Z 21005KT 05/04 A3006 RMK A01 T00500039  RH  093%=      5-min Rain = 0
KEN1 141317Z 20005KT 05/04 A3006 RMK A01 T00500039  RH  093%=      5-min Rain = 0
KEN1 141318Z 20005KT 05/04 A3006 RMK A01 T00510039  RH  092%=      5-min Rain = 0
KEN1 141319Z 20005KT 05/04 A3006 RMK A01 T00510040  RH  092%=      5-min Rain = 0
KEN1 141320Z 20004KT 05/04 A3006 RMK A01 T00520040  RH  092%=      5-min Rain = 0
KEN1 141321Z 21005KT 05/04 A3006 RMK A01 T00520039  RH  092%=      5-min Rain = 0
KEN1 141322Z 21004KT 05/04 A3006 RMK A01 T00520040  RH  092%=      5-min Rain = 0
KEN1 141323Z 21004KT 05/04 A3006 RMK A01 T00520040  RH  092%=      5-min Rain = 0
KEN1 141324Z 22004KT 05/04 A3006 RMK A01 T00520039  RH  091%=      5-min Rain = 0
KEN1 141325Z 22004KT 05/04 A3006 RMK A01 T00530040  RH  092%=      5-min Rain = 0
KEN1 141326Z 22004KT 05/04 A3006 RMK A01 T00540040  RH  091%=      5-min Rain = 0
KEN1 141327Z 21004KT 05/04 A3006 RMK A01 T00540040  RH  091%=      5-min Rain = 0
KEN1 141328Z 22004KT 05/04 A3006 RMK A01 T00540039  RH  090%=      5-min Rain = 0
KEN1 141329Z 21005KT 05/04 A3006 RMK A01 T00530039  RH  091%=      5-min Rain = 0
KEN1 141330Z 21005KT 05/04 A3006 RMK A01 T00530039  RH  091%=      5-min Rain = 0
KEN1 141331Z 21004KT 05/04 A3006 RMK A01 T00530039  RH  091%=      5-min Rain = 0
KEN1 141332Z 21005KT 05/04 A3006 RMK A01 T00530038  RH  090%=      5-min Rain = 0
KEN1 141333Z 21005KT 05/04 A3006 RMK A01 T00530039  RH  091%=      5-min Rain = 0
KEN1 141334Z 20005KT 05/04 A3006 RMK A01 T00520038  RH  091%=      5-min Rain = 0
KEN1 141335Z 20005KT 05/04 A3006 RMK A01 T00520038  RH  091%=      5-min Rain = 0
KEN1 141336Z 21006KT 05/04 A3006 RMK A01 T00520038  RH  091%=      5-min Rain = 0
KEN1 141337Z 20006KT 05/04 A3006 RMK A01 T00510038  RH  091%=      5-min Rain = 0
KEN1 141338Z 20006KT 05/04 A3006 RMK A01 T00510038  RH  091%=      5-min Rain = 0
KEN1 141339Z 20006KT 05/04 A3006 RMK A01 T00500037  RH  091%=      5-min Rain = 0
KEN1 141340Z 20006KT 05/04 A3006 RMK A01 T00510038  RH  091%=      5-min Rain = 0
KEN1 141341Z 20006KT 05/04 A3006 RMK A01 T00510037  RH  091%=      5-min Rain = 0
KEN1 141342Z 20006KT 05/04 A3006 RMK A01 T00500036  RH  091%=      5-min Rain = 0
KEN1 141343Z 19006KT 05/04 A3006 RMK A01 T00500036  RH  091%=      5-min Rain = 0
KEN1 141344Z 19006KT 05/04 A3006 RMK A01 T00490035  RH  091%=      5-min Rain = 0
KEN1 141345Z 19006KT 05/04 A3006 RMK A01 T00490036  RH  091%=      5-min Rain = 0
KEN1 141346Z 19006KT 05/04 A3006 RMK A01 T00490037  RH  092%=      5-min Rain = 0
KEN1 141347Z 18005KT 05/04 A3006 RMK A01 T00500037  RH  091%=      5-min Rain = 0
KEN1 141348Z 19005KT 05/04 A3007 RMK A01 T00500037  RH  091%=      5-min Rain = 0
KEN1 141349Z 20005KT 05/04 A3007 RMK A01 T00500036  RH  091%=      5-min Rain = 0
KEN1 141350Z 20005KT 05/04 A3007 RMK A01 T00510037  RH  091%=      5-min Rain = 0
KEN1 141351Z 21005KT 05/04 A3007 RMK A01 T00510037  RH  091%=      5-min Rain = 0
KEN1 141352Z 21004KT 05/04 A3007 RMK A01 T00510037  RH  091%=      5-min Rain = 0
KEN1 141353Z 20004KT 05/04 A3007 RMK A01 T00520038  RH  091%=      5-min Rain = 0
KEN1 141354Z 21004KT 05/04 A3007 RMK A01 T00530040  RH  091%=      5-min Rain = 0
KEN1 141355Z 20004KT 05/04 A3007 RMK A01 T00540040  RH  090%=      5-min Rain = 0
KEN1 141356Z 19005KT 06/04 A3007 RMK A01 T00550039  RH  090%=      5-min Rain = 0
KEN1 141357Z 19006KT 06/04 A3007 RMK A01 T00550039  RH  090%=      5-min Rain = 0
KEN1 141358Z 19006KT 06/04 A3007 RMK A01 T00550040  RH  090%=      5-min Rain = 0
KEN1 141359Z 19005KT 06/04 A3007 RMK A01 T00560041  RH  090%=      5-min Rain = 0
KEN1 141400Z 19005KT 06/04 A3007 RMK A01 T00570043  RH  090%=      5-min Rain = 0
KEN1 141401Z 19005KT 06/04 A3007 RMK A01 T00590044  RH  090%=      5-min Rain = 0
KEN1 141402Z 19006KT 06/05 A3007 RMK A01 T00600045  RH  090%=      5-min Rain = 0
KEN1 141403Z 19006KT 06/05 A3007 RMK A01 T00610046  RH  090%=      5-min Rain = 0
KEN1 141404Z 19006KT 06/05 A3007 RMK A01 T00620047  RH  090%=      5-min Rain = 0
KEN1 141405Z 19005KT 06/05 A3007 RMK A01 T00630048  RH  090%=      5-min Rain = 0
KEN1 141406Z 19006KT 06/05 A3007 RMK A01 T00640049  RH  090%=      5-min Rain = 0
KEN1 141407Z 18006KT 07/05 A3007 RMK A01 T00650049  RH  090%=      5-min Rain = 0
KEN1 141408Z 18005KT 07/05 A3007 RMK A01 T00660049  RH  089%=      5-min Rain = 0
KEN1 141409Z 18005KT 07/05 A3007 RMK A01 T00660049  RH  089%=      5-min Rain = 0
KEN1 141410Z 18004KT 07/05 A3007 RMK A01 T00660050  RH  089%=      5-min Rain = 0
KEN1 141411Z 18004KT 07/05 A3007 RMK A01 T00670051  RH  090%=      5-min Rain = 0
KEN1 141412Z 17004KT 07/05 A3007 RMK A01 T00670051  RH  090%=      5-min Rain = 0
KEN1 141413Z 16004KT 07/05 A3007 RMK A01 T00680053  RH  090%=      5-min Rain = 0
KEN1 141414Z 16004KT 07/05 A3007 RMK A01 T00690054  RH  090%=      5-min Rain = 0
KEN1 141415Z 16003KT 07/06 A3007 RMK A01 T00700055  RH  090%=      5-min Rain = 0
KEN1 141416Z 15003KT 07/06 A3006 RMK A01 T00710056  RH  090%=      5-min Rain = 0
KEN1 141417Z 15003KT 07/06 A3006 RMK A01 T00700055  RH  090%=      5-min Rain = 0
KEN1 141418Z 15004KT 07/06 A3006 RMK A01 T00710055  RH  090%=      5-min Rain = 0
KEN1 141419Z 15004KT 07/06 A3006 RMK A01 T00710055  RH  089%=      5-min Rain = 0
KEN1 141420Z 15004KT 07/05 A3006 RMK A01 T00710054  RH  089%=      5-min Rain = 0
KEN1 141421Z 15004KT 07/05 A3006 RMK A01 T00720054  RH  088%=      5-min Rain = 0
KEN1 141422Z 15005KT 07/05 A3006 RMK A01 T00720054  RH  088%=      5-min Rain = 0
KEN1 141423Z 15004KT 07/06 A3006 RMK A01 T00720055  RH  089%=      5-min Rain = 0
KEN1 141424Z 15004KT 07/05 A3006 RMK A01 T00720054  RH  088%=      5-min Rain = 0
KEN1 141425Z 15004KT 07/06 A3006 RMK A01 T00730055  RH  088%=      5-min Rain = 0
KEN1 141426Z 14003KT 07/06 A3007 RMK A01 T00740056  RH  088%=      5-min Rain = 0
KEN1 141427Z 14003KT 08/06 A3007 RMK A01 T00750057  RH  088%=      5-min Rain = 0
KEN1 141428Z 13003KT 08/06 A3007 RMK A01 T00760057  RH  088%=      5-min Rain = 0
KEN1 141429Z 13002KT 08/06 A3007 RMK A01 T00770058  RH  088%=      5-min Rain = 0
KEN1 141430Z 13002KT 08/06 A3007 RMK A01 T00780058  RH  087%=      5-min Rain = 0
KEN1 141431Z 11001KT 08/06 A3007 RMK A01 T00790059  RH  087%=      5-min Rain = 0
KEN1 141432Z 11002KT 08/06 A3007 RMK A01 T00800060  RH  087%=      5-min Rain = 0
KEN1 141433Z 12002KT 08/06 A3007 RMK A01 T00800061  RH  088%=      5-min Rain = 0
KEN1 141434Z 12001KT 08/06 A3007 RMK A01 T00810060  RH  087%=      5-min Rain = 0
KEN1 141435Z 16002KT 08/06 A3007 RMK A01 T00820060  RH  087%=      5-min Rain = 0
KEN1 141436Z 16002KT 08/06 A3007 RMK A01 T00830061  RH  086%=      5-min Rain = 0
KEN1 141437Z 15002KT 09/06 A3007 RMK A01 T00850060  RH  085%=      5-min Rain = 0
KEN1 141438Z 16002KT 09/06 A3007 RMK A01 T00860061  RH  084%=      5-min Rain = 0
KEN1 141439Z 16002KT 09/06 A3007 RMK A01 T00870062  RH  084%=      5-min Rain = 0
KEN1 141440Z 16002KT 09/06 A3007 RMK A01 T00870060  RH  083%=      5-min Rain = 0
KEN1 141441Z 17002KT 09/06 A3007 RMK A01 T00880060  RH  083%=      5-min Rain = 0
KEN1 141442Z 17002KT 09/06 A3007 RMK A01 T00880060  RH  083%=      5-min Rain = 0
KEN1 141443Z 17002KT 09/06 A3007 RMK A01 T00880061  RH  083%=      5-min Rain = 0
KEN1 141444Z 16003KT 09/06 A3007 RMK A01 T00880062  RH  084%=      5-min Rain = 0
KEN1 141445Z 16003KT 09/06 A3007 RMK A01 T00880062  RH  084%=      5-min Rain = 0
KEN1 141446Z 16003KT 09/06 A3007 RMK A01 T00890062  RH  083%=      5-min Rain = 0
KEN1 141447Z 16003KT 09/06 A3007 RMK A01 T00900063  RH  083%=      5-min Rain = 0
KEN1 141448Z 16004KT 09/06 A3007 RMK A01 T00910063  RH  082%=      5-min Rain = 0
KEN1 141449Z 17004KT 09/06 A3007 RMK A01 T00920062  RH  081%=      5-min Rain = 0
KEN1 141450Z 16004KT 09/06 A3007 RMK A01 T00930061  RH  080%=      5-min Rain = 0
KEN1 141451Z 17005KT 09/06 A3007 RMK A01 T00930061  RH  081%=      5-min Rain = 0
KEN1 141452Z 17004KT 09/06 A3007 RMK A01 T00940062  RH  080%=      5-min Rain = 0
KEN1 141453Z 17004KT 10/06 A3007 RMK A01 T00950064  RH  081%=      5-min Rain = 0
KEN1 141454Z 16004KT 10/06 A3007 RMK A01 T00960063  RH  080%=      5-min Rain = 0
KEN1 141455Z 17004KT 10/07 A3007 RMK A01 T00970065  RH  081%=      5-min Rain = 0
KEN1 141456Z 17004KT 10/07 A3007 RMK A01 T00980065  RH  080%=      5-min Rain = 0
KEN1 141457Z 17004KT 10/07 A3007 RMK A01 T00990065  RH  079%=      5-min Rain = 0
KEN1 141458Z 17003KT 10/07 A3007 RMK A01 T01000067  RH  080%=      5-min Rain = 0
KEN1 141459Z 17004KT 10/07 A3007 RMK A01 T01010067  RH  080%=      5-min Rain = 0
KEN1 141500Z 17004KT 10/07 A3007 RMK A01 T01020066  RH  079%=      5-min Rain = 0
KEN1 141501Z 18003KT 10/07 A3007 RMK A01 T01020067  RH  079%=      5-min Rain = 0
KEN1 141502Z 17003KT 10/07 A3007 RMK A01 T01040070  RH  080%=      5-min Rain = 0
KEN1 141503Z 17002KT 11/07 A3007 RMK A01 T01060072  RH  079%=      5-min Rain = 0
KEN1 141504Z 17002KT 11/07 A3007 RMK A01 T01070070  RH  078%=      5-min Rain = 0
KEN1 141505Z 16001KT 11/07 A3007 RMK A01 T01100071  RH  077%=      5-min Rain = 0
KEN1 141506Z 00000KT 11/07 A3007 RMK A01 T01130074  RH  076%=      5-min Rain = 0
KEN1 141507Z 00000KT 12/07 A3007 RMK A01 T01160071  RH  073%=      5-min Rain = 0
KEN1 141508Z 00000KT 12/07 A3007 RMK A01 T01190070  RH  072%=      5-min Rain = 0
KEN1 141509Z 00000KT 12/07 A3007 RMK A01 T01220071  RH  071%=      5-min Rain = 0
KEN1 141510Z 22000KT 12/07 A3007 RMK A01 T01230069  RH  069%=      5-min Rain = 0
KEN1 141511Z 17000KT 12/07 A3007 RMK A01 T01240070  RH  070%=      5-min Rain = 0
KEN1 141512Z 16000KT 13/07 A3007 RMK A01 T01250073  RH  070%=      5-min Rain = 0
KEN1 141513Z 00000KT 13/07 A3007 RMK A01 T01270070  RH  068%=      5-min Rain = 0
KEN1 141514Z 00000KT 13/07 A3007 RMK A01 T01280070  RH  068%=      5-min Rain = 0
KEN1 141515Z 03000KT 13/07 A3008 RMK A01 T01280070  RH  068%=      5-min Rain = 0
KEN1 141516Z 02000KT 13/07 A3008 RMK A01 T01280068  RH  067%=      5-min Rain = 0
KEN1 141517Z 02001KT 13/07 A3008 RMK A01 T01280066  RH  066%=      5-min Rain = 0
KEN1 141518Z 00002KT 13/07 A3008 RMK A01 T01270069  RH  068%=      5-min Rain = 0
KEN1 141519Z 36001KT 13/07 A3008 RMK A01 T01250068  RH  068%=      5-min Rain = 0
KEN1 141520Z 19000KT 12/06 A3008 RMK A01 T01240064  RH  067%=      5-min Rain = 0
KEN1 141521Z 21001KT 13/06 A3007 RMK A01 T01250064  RH  067%=      5-min Rain = 0
KEN1 141522Z 20002KT 12/06 A3007 RMK A01 T01240061  RH  065%=      5-min Rain = 0
KEN1 141523Z 19002KT 12/06 A3007 RMK A01 T01240063  RH  067%=      5-min Rain = 0
KEN1 141524Z 19002KT 12/06 A3007 RMK A01 T01240064  RH  067%=      5-min Rain = 0
KEN1 141525Z 19003KT 12/06 A3007 RMK A01 T01240062  RH  066%=      5-min Rain = 0
KEN1 141526Z 20003KT 12/06 A3007 RMK A01 T01240064  RH  067%=      5-min Rain = 0
KEN1 141527Z 21002KT 12/06 A3007 RMK A01 T01240060  RH  065%=      5-min Rain = 0
KEN1 141528Z 18002KT 13/07 A3007 RMK A01 T01250065  RH  067%=      5-min Rain = 0
KEN1 141529Z 20003KT 13/07 A3007 RMK A01 T01260069  RH  068%=      5-min Rain = 0
KEN1 141530Z 20003KT 13/07 A3007 RMK A01 T01270068  RH  067%=      5-min Rain = 0
KEN1 141531Z 19003KT 13/06 A3007 RMK A01 T01270064  RH  065%=      5-min Rain = 0
KEN1 141532Z 19003KT 13/07 A3007 RMK A01 T01280066  RH  066%=      5-min Rain = 0
KEN1 141533Z 21004KT 13/07 A3007 RMK A01 T01280065  RH  065%=      5-min Rain = 0
KEN1 141534Z 19004KT 13/06 A3007 RMK A01 T01290064  RH  065%=      5-min Rain = 0
KEN1 141535Z 21004KT 13/06 A3007 RMK A01 T01280063  RH  065%=      5-min Rain = 0
KEN1 141536Z 20004KT 13/06 A3007 RMK A01 T01290061  RH  064%=      5-min Rain = 0
KEN1 141537Z 19003KT 13/06 A3007 RMK A01 T01290063  RH  064%=      5-min Rain = 0
KEN1 141538Z 20003KT 13/07 A3007 RMK A01 T01300065  RH  065%=      5-min Rain = 0
KEN1 141539Z 20004KT 13/07 A3007 RMK A01 T01300066  RH  065%=      5-min Rain = 0
KEN1 141540Z 19004KT 13/07 A3007 RMK A01 T01310070  RH  066%=      5-min Rain = 0
KEN1 141541Z 19004KT 13/07 A3007 RMK A01 T01320066  RH  064%=      5-min Rain = 0
KEN1 141542Z 19004KT 13/07 A3007 RMK A01 T01330067  RH  065%=      5-min Rain = 0
KEN1 141543Z 20005KT 13/07 A3007 RMK A01 T01330068  RH  065%=      5-min Rain = 0
KEN1 141544Z 22005KT 13/07 A3007 RMK A01 T01330066  RH  064%=      5-min Rain = 0
KEN1 141545Z 19004KT 13/07 A3007 RMK A01 T01330066  RH  064%=      5-min Rain = 0
KEN1 141546Z 20004KT 13/07 A3006 RMK A01 T01320069  RH  065%=      5-min Rain = 0
KEN1 141547Z 22004KT 13/07 A3006 RMK A01 T01330068  RH  065%=      5-min Rain = 0
KEN1 141548Z 19003KT 13/07 A3006 RMK A01 T01340067  RH  064%=      5-min Rain = 0
KEN1 141549Z 20003KT 14/07 A3006 RMK A01 T01350069  RH  064%=      5-min Rain = 0
KEN1 141550Z 19004KT 14/07 A3006 RMK A01 T01360070  RH  064%=      5-min Rain = 0
KEN1 141551Z 20003KT 14/07 A3006 RMK A01 T01370070  RH  064%=      5-min Rain = 0
KEN1 141552Z 20003KT 14/07 A3006 RMK A01 T01370066  RH  062%=      5-min Rain = 0
KEN1 141553Z 19004KT 14/07 A3006 RMK A01 T01370070  RH  064%=      5-min Rain = 0
KEN1 141554Z 19005KT 14/07 A3006 RMK A01 T01390069  RH  063%=      5-min Rain = 0
KEN1 141555Z 19004KT 14/07 A3006 RMK A01 T01400071  RH  063%=      5-min Rain = 0
KEN1 141556Z 20004KT 14/07 A3006 RMK A01 T01410070  RH  062%=      5-min Rain = 0
KEN1 141557Z 19004KT 14/07 A3006 RMK A01 T01420069  RH  062%=      5-min Rain = 0
KEN1 141558Z 20004KT 14/07 A3006 RMK A01 T01430070  RH  061%=      5-min Rain = 0
KEN1 141559Z 19004KT 14/07 A3006 RMK A01 T01440069  RH  061%=      5-min Rain = 0
KEN1 141600Z 18006KT 15/07 A3006 RMK A01 T01450070  RH  061%=      5-min Rain = 0
KEN1 141601Z 19005KT 15/07 A3006 RMK A01 T01460070  RH  060%=      5-min Rain = 0
KEN1 141602Z 21006KT 15/07 A3006 RMK A01 T01470070  RH  060%=      5-min Rain = 0
KEN1 141603Z 20005KT 15/07 A3006 RMK A01 T01490069  RH  059%=      5-min Rain = 0
KEN1 141604Z 20006KT 15/07 A3006 RMK A01 T01500073  RH  060%=      5-min Rain = 0
KEN1 141605Z 20006KT 15/07 A3006 RMK A01 T01520074  RH  060%=      5-min Rain = 0
KEN1 141606Z 21006KT 15/08 A3006 RMK A01 T01530075  RH  060%=      5-min Rain = 0
KEN1 141607Z 21006KT 15/08 A3006 RMK A01 T01540077  RH  060%=      5-min Rain = 0
KEN1 141608Z 22007KT 16/08 A3006 RMK A01 T01560078  RH  060%=      5-min Rain = 0
KEN1 141609Z 22006KT 16/08 A3006 RMK A01 T01570077  RH  059%=      5-min Rain = 0
KEN1 141610Z 22005KT 16/08 A3006 RMK A01 T01580077  RH  058%=      5-min Rain = 0
KEN1 141611Z 22004KT 16/08 A3006 RMK A01 T01600077  RH  058%=      5-min Rain = 0
KEN1 141612Z 22005KT 16/07 A3006 RMK A01 T01610074  RH  056%=      5-min Rain = 0
KEN1 141613Z 23005KT 16/07 A3005 RMK A01 T01620073  RH  056%=      5-min Rain = 0
KEN1 141614Z 24003KT 16/08 A3005 RMK A01 T01640076  RH  056%=      5-min Rain = 0
KEN1 141615Z 26003KT 17/07 A3005 RMK A01 T01660073  RH  054%=      5-min Rain = 0
KEN1 141616Z 25003KT 17/07 A3005 RMK A01 T01670067  RH  052%=      5-min Rain = 0
KEN1 141617Z 25003KT 17/07 A3005 RMK A01 T01680066  RH  051%=      5-min Rain = 0
KEN1 141618Z 22005KT 17/07 A3005 RMK A01 T01680069  RH  052%=      5-min Rain = 0
KEN1 141619Z 22005KT 17/07 A3005 RMK A01 T01690070  RH  052%=      5-min Rain = 0
KEN1 141620Z 21003KT 17/07 A3005 RMK A01 T01700067  RH  051%=      5-min Rain = 0
KEN1 141621Z 19003KT 17/07 A3005 RMK A01 T01700067  RH  051%=      5-min Rain = 0
KEN1 141622Z 19004KT 17/07 A3005 RMK A01 T01700070  RH  052%=      5-min Rain = 0
KEN1 141623Z 20005KT 17/07 A3005 RMK A01 T01710072  RH  052%=      5-min Rain = 0
KEN1 141624Z 21003KT 17/07 A3005 RMK A01 T01720068  RH  050%=      5-min Rain = 0
KEN1 141625Z 21005KT 17/07 A3005 RMK A01 T01730071  RH  051%=      5-min Rain = 0
KEN1 141626Z 23006KT 18/07 A3005 RMK A01 T01750071  RH  050%=      5-min Rain = 0
KEN1 141627Z 24008KT 18/06 A3005 RMK A01 T01800060  RH  045%=      5-min Rain = 0
KEN1 141628Z 24008KT 19/06 A3005 RMK A01 T01850055  RH  042%=      5-min Rain = 0
KEN1 141629Z 24008KT 19/05 A3005 RMK A01 T01880049  RH  040%=      5-min Rain = 0
KEN1 141630Z 23008KT 19/05 A3005 RMK A01 T01890049  RH  040%=      5-min Rain = 0
KEN1 141631Z 22008KT 19/05 A3005 RMK A01 T01890052  RH  041%=      5-min Rain = 0
KEN1 141632Z 23010KT 19/05 A3005 RMK A01 T01890053  RH  041%=      5-min Rain = 0
KEN1 141633Z 24008KT 19/06 A3005 RMK A01 T01900055  RH  041%=      5-min Rain = 0
KEN1 141634Z 23009KT 19/05 A3005 RMK A01 T01920054  RH  040%=      5-min Rain = 0
KEN1 141635Z 24010KT 19/05 A3005 RMK A01 T01940047  RH  038%=      5-min Rain = 0
KEN1 141636Z 25014KT 20/04 A3005 RMK A01 T01950037  RH  035%=      5-min Rain = 0
KEN1 141637Z 23013KT 20/03 A3005 RMK A01 T01950031  RH  034%=      5-min Rain = 0
KEN1 141638Z 25012KT 20/03 A3005 RMK A01 T01950034  RH  034%=      5-min Rain = 0
KEN1 141639Z 25009KT 20/04 A3005 RMK A01 T01950036  RH  035%=      5-min Rain = 0
KEN1 141640Z 24011KT 20/04 A3005 RMK A01 T01970040  RH  035%=      5-min Rain = 0
KEN1 141641Z 26012KT 20/04 A3005 RMK A01 T01990038  RH  034%=      5-min Rain = 0
KEN1 141642Z 25014KT 20/04 A3005 RMK A01 T02000035  RH  034%=      5-min Rain = 0
KEN1 141643Z 25013KT 20/03 A3005 RMK A01 T01990033  RH  033%=      5-min Rain = 0
KEN1 141644Z 24014KT 20/03 A3005 RMK A01 T01980033  RH  033%=      5-min Rain = 0
KEN1 141645Z 24014G20KT 20/03 A3005 RMK A01 T01990031  RH  033%=      5-min Rain = 0
KEN1 141646Z 25014KT 20/03 A3005 RMK A01 T01990033  RH  033%=      5-min Rain = 0
KEN1 141647Z 26013KT 20/03 A3005 RMK A01 T01990032  RH  033%=      5-min Rain = 0
KEN1 141648Z 25012KT 20/03 A3005 RMK A01 T01990034  RH  034%=      5-min Rain = 0
KEN1 141649Z 24012KT 20/03 A3005 RMK A01 T02000033  RH  033%=      5-min Rain = 0
KEN1 141650Z 25013KT 20/03 A3005 RMK A01 T02000033  RH  033%=      5-min Rain = 0
KEN1 141651Z 26013KT 20/03 A3005 RMK A01 T02010032  RH  033%=      5-min Rain = 0
KEN1 141652Z 26012KT 20/03 A3005 RMK A01 T02010031  RH  032%=      5-min Rain = 0
KEN1 141653Z 26011KT 20/03 A3004 RMK A01 T02020034  RH  033%=      5-min Rain = 0
KEN1 141654Z 26013KT 20/03 A3004 RMK A01 T02040031  RH  032%=      5-min Rain = 0
KEN1 141655Z 26010KT 20/03 A3004 RMK A01 T02040033  RH  032%=      5-min Rain = 0
KEN1 141656Z 26010KT 21/04 A3004 RMK A01 T02060035  RH  033%=      5-min Rain = 0
KEN1 141657Z 27011KT 21/04 A3004 RMK A01 T02080037  RH  032%=      5-min Rain = 0
KEN1 141658Z 26012KT 21/03 A3004 RMK A01 T02090034  RH  032%=      5-min Rain = 0
KEN1 141659Z 26012KT 21/03 A3004 RMK A01 T02080033  RH  032%=      5-min Rain = 0
KEN1 141700Z 27011KT 21/04 A3004 RMK A01 T02070035  RH  032%=      5-min Rain = 0
KEN1 141701Z 27012KT 21/04 A3004 RMK A01 T02070035  RH  032%=      5-min Rain = 0
KEN1 141702Z 26012KT 21/04 A3004 RMK A01 T02080036  RH  032%=      5-min Rain = 0
KEN1 141703Z 27013KT 21/04 A3004 RMK A01 T02100035  RH  032%=      5-min Rain = 0
KEN1 141704Z 26015KT 21/03 A3004 RMK A01 T02100031  RH  031%=      5-min Rain = 0
KEN1 141705Z 26016KT 21/03 A3004 RMK A01 T02100029  RH  030%=      5-min Rain = 0
KEN1 141706Z 25015KT 21/03 A3004 RMK A01 T02090029  RH  030%=      5-min Rain = 0
KEN1 141707Z 26015KT 21/03 A3004 RMK A01 T02100029  RH  030%=      5-min Rain = 0
KEN1 141708Z 25015KT 21/03 A3004 RMK A01 T02090030  RH  031%=      5-min Rain = 0
KEN1 141709Z 25014KT 21/03 A3004 RMK A01 T02100033  RH  031%=      5-min Rain = 0
KEN1 141710Z 25016KT 21/03 A3004 RMK A01 T02120032  RH  031%=      5-min Rain = 0
KEN1 141711Z 25016KT 21/03 A3003 RMK A01 T02120030  RH  030%=      5-min Rain = 0
KEN1 141712Z 26015KT 21/03 A3003 RMK A01 T02120028  RH  030%=      5-min Rain = 0
KEN1 141713Z 27014KT 21/03 A3003 RMK A01 T02140028  RH  029%=      5-min Rain = 0
KEN1 141714Z 25013KT 21/03 A3003 RMK A01 T02140026  RH  029%=      5-min Rain = 0
KEN1 141715Z 25015KT 22/03 A3003 RMK A01 T02150027  RH  029%=      5-min Rain = 0
KEN1 141716Z 25016KT 22/03 A3003 RMK A01 T02160028  RH  029%=      5-min Rain = 0
KEN1 141717Z 26017KT 22/03 A3003 RMK A01 T02160026  RH  029%=      5-min Rain = 0
KEN1 141718Z 26018KT 22/02 A3003 RMK A01 T02160023  RH  028%=      5-min Rain = 0
KEN1 141719Z 26016KT 22/02 A3003 RMK A01 T02160022  RH  028%=      5-min Rain = 0
KEN1 141720Z 26017KT 22/02 A3003 RMK A01 T02170022  RH  028%=      5-min Rain = 0
KEN1 141721Z 26018KT 22/02 A3003 RMK A01 T02180019  RH  027%=      5-min Rain = 0
KEN1 141722Z 26017KT 22/02 A3003 RMK A01 T02180021  RH  027%=      5-min Rain = 0
KEN1 141723Z 26015KT 22/02 A3003 RMK A01 T02190022  RH  027%=      5-min Rain = 0
KEN1 141724Z 26013KT 22/02 A3003 RMK A01 T02190023  RH  027%=      5-min Rain = 0
KEN1 141725Z 26013KT 22/03 A3003 RMK A01 T02210027  RH  028%=      5-min Rain = 0
KEN1 141726Z 26013KT 22/03 A3003 RMK A01 T02220027  RH  028%=      5-min Rain = 0
KEN1 141727Z 26016KT 22/02 A3003 RMK A01 T02230024  RH  027%=      5-min Rain = 0
KEN1 141728Z 25018KT 22/02 A3003 RMK A01 T02230023  RH  027%=      5-min Rain = 0
KEN1 141729Z 26015KT 22/02 A3003 RMK A01 T02220023  RH  027%=      5-min Rain = 0
KEN1 141730Z 26012KT 22/03 A3003 RMK A01 T02230026  RH  027%=      5-min Rain = 0
KEN1 141731Z 26015KT 23/03 A3003 RMK A01 T02250026  RH  027%=      5-min Rain = 0
KEN1 141732Z 26016KT 23/02 A3002 RMK A01 T02250023  RH  027%=      5-min Rain = 0
KEN1 141733Z 26015KT 22/02 A3002 RMK A01 T02240024  RH  027%=      5-min Rain = 0
KEN1 141734Z 26015KT 22/02 A3002 RMK A01 T02230022  RH  027%=      5-min Rain = 0
KEN1 141735Z 26014KT 22/02 A3002 RMK A01 T02240020  RH  026%=      5-min Rain = 0
KEN1 141736Z 27015KT 23/02 A3002 RMK A01 T02260020  RH  026%=      5-min Rain = 0
KEN1 141737Z 26016KT 23/02 A3002 RMK A01 T02260021  RH  026%=      5-min Rain = 0
KEN1 141738Z 26014KT 23/02 A3002 RMK A01 T02260022  RH  026%=      5-min Rain = 0
KEN1 141739Z 25014KT 23/02 A3002 RMK A01 T02260022  RH  026%=      5-min Rain = 0
KEN1 141740Z 26014KT 23/02 A3002 RMK A01 T02260024  RH  026%=      5-min Rain = 0
KEN1 141741Z 26012KT 23/02 A3002 RMK A01 T02280023  RH  026%=      5-min Rain = 0
KEN1 141742Z 25012G17KT 23/03 A3002 RMK A01 T02290025  RH  026%=      5-min Rain = 0
KEN1 141743Z 25014KT 23/02 A3002 RMK A01 T02300021  RH  025%=      5-min Rain = 0
KEN1 141744Z 25016KT 23/02 A3002 RMK A01 T02290018  RH  025%=      5-min Rain = 0
KEN1 141745Z 26014KT 23/02 A3002 RMK A01 T02270022  RH  026%=      5-min Rain = 0
KEN1 141746Z 26012KT 23/02 A3002 RMK A01 T02270023  RH  026%=      5-min Rain = 0
KEN1 141747Z 27010KT 23/03 A3001 RMK A01 T02280025  RH  026%=      5-min Rain = 0
KEN1 141748Z 26012KT 23/03 A3001 RMK A01 T02290027  RH  026%=      5-min Rain = 0
KEN1 141749Z 27013KT 23/02 A3001 RMK A01 T02310022  RH  025%=      5-min Rain = 0
KEN1 141750Z 27013KT 23/02 A3001 RMK A01 T02310020  RH  025%=      5-min Rain = 0
KEN1 141751Z 26013KT 23/02 A3001 RMK A01 T02310020  RH  025%=      5-min Rain = 0
KEN1 141752Z 26011KT 23/02 A3001 RMK A01 T02310018  RH  025%=      5-min Rain = 0
KEN1 141753Z 27013KT 23/02 A3001 RMK A01 T02330022  RH  025%=      5-min Rain = 0
KEN1 141754Z 27015KT 23/02 A3001 RMK A01 T02340016  RH  024%=      5-min Rain = 0
KEN1 141755Z 26012KT 23/02 A3001 RMK A01 T02330018  RH  024%=      5-min Rain = 0
KEN1 141756Z 26014KT 23/02 A3001 RMK A01 T02340019  RH  024%=      5-min Rain = 0
KEN1 141757Z 27014KT 24/02 A3001 RMK A01 T02350018  RH  024%=      5-min Rain = 0
KEN1 141758Z 27012KT 24/02 A3001 RMK A01 T02350017  RH  024%=      5-min Rain = 0
KEN1 141759Z 27013KT 24/02 A3001 RMK A01 T02350018  RH  024%=      5-min Rain = 0
KEN1 141800Z 27013KT 24/02 A3001 RMK A01 T02360017  RH  024%=      5-min Rain = 0
KEN1 141801Z 26014KT 23/02 A3001 RMK A01 T02340015  RH  024%=      5-min Rain = 0
KEN1 141802Z 26017KT 23/01 A30 RMK A01 T02340013  RH  023%=      5-min Rain = 0
KEN1 141803Z 26017KT 23/01 A30 RMK A01 T02340013  RH  023%=      5-min Rain = 0
KEN1 141804Z 26015KT 23/01 A30 RMK A01 T02320012  RH  023%=      5-min Rain = 0
KEN1 141805Z 26013KT 23/01 A30 RMK A01 T02320014  RH  024%=      5-min Rain = 0
KEN1 141806Z 26014KT 23/02 A30 RMK A01 T02330017  RH  024%=      5-min Rain = 0
KEN1 141807Z 27013KT 24/02 A30 RMK A01 T02350018  RH  024%=      5-min Rain = 0
KEN1 141808Z 28016KT 24/02 A30 RMK A01 T02370016  RH  023%=      5-min Rain = 0
KEN1 141809Z 28016KT 24/02 A30 RMK A01 T02370016  RH  023%=      5-min Rain = 0
KEN1 141810Z 27013KT 24/02 A30 RMK A01 T02360015  RH  023%=      5-min Rain = 0
KEN1 141811Z 26014KT 24/02 A30 RMK A01 T02370017  RH  024%=      5-min Rain = 0
KEN1 141812Z 26012KT 24/02 A30 RMK A01 T02380018  RH  024%=      5-min Rain = 0
KEN1 141813Z 27011KT 24/02 A2999 RMK A01 T02390019  RH  024%=      5-min Rain = 0
KEN1 141814Z 26008KT 24/02 A2999 RMK A01 T02380020  RH  024%=      5-min Rain = 0
KEN1 141815Z 26012KT 24/02 A2999 RMK A01 T02390018  RH  024%=      5-min Rain = 0
KEN1 141816Z 25013KT 24/02 A2999 RMK A01 T02410020  RH  023%=      5-min Rain = 0
KEN1 141817Z 27013G18KT 24/02 A2999 RMK A01 T02430019  RH  023%=      5-min Rain = 0
KEN1 141818Z 27014KT 25/02 A2999 RMK A01 T02450016  RH  022%=      5-min Rain = 0
KEN1 141819Z 25013KT 24/02 A2999 RMK A01 T02440018  RH  023%=      5-min Rain = 0
KEN1 141820Z 27014KT 24/02 A2999 RMK A01 T02430017  RH  023%=      5-min Rain = 0
KEN1 141821Z 26012KT 24/02 A2999 RMK A01 T02410016  RH  023%=      5-min Rain = 0
KEN1 141822Z 25010KT 24/02 A2999 RMK A01 T02400016  RH  023%=      5-min Rain = 0
KEN1 141823Z 26010KT 24/02 A2999 RMK A01 T02400017  RH  023%=      5-min Rain = 0
KEN1 141824Z 26012KT 24/02 A2999 RMK A01 T02410020  RH  023%=      5-min Rain = 0
KEN1 141825Z 27011KT 24/02 A2998 RMK A01 T02430017  RH  023%=      5-min Rain = 0
KEN1 141826Z 25013KT 24/02 A2998 RMK A01 T02430018  RH  023%=      5-min Rain = 0
KEN1 141827Z 26013KT 24/02 A2998 RMK A01 T02440017  RH  023%=      5-min Rain = 0
KEN1 141828Z 26013KT 24/02 A2998 RMK A01 T02440018  RH  023%=      5-min Rain = 0
KEN1 141829Z 26011KT 24/02 A2998 RMK A01 T02440015  RH  022%=      5-min Rain = 0
KEN1 141830Z 27010KT 24/02 A2998 RMK A01 T02440016  RH  023%=      5-min Rain = 0
KEN1 141831Z 27011KT 24/02 A2998 RMK A01 T02430016  RH  023%=      5-min Rain = 0
KEN1 141832Z 28012KT 24/02 A2998 RMK A01 T02440020  RH  023%=      5-min Rain = 0
KEN1 141833Z 28011KT 25/02 A2998 RMK A01 T02470017  RH  022%=      5-min Rain = 0
KEN1 141834Z 26010KT 25/02 A2998 RMK A01 T02470019  RH  023%=      5-min Rain = 0
KEN1 141835Z 25012KT 25/02 A2998 RMK A01 T02490017  RH  022%=      5-min Rain = 0
KEN1 141836Z 26013KT 25/01 A2998 RMK A01 T02480014  RH  022%=      5-min Rain = 0
KEN1 141837Z 25014KT 25/01 A2997 RMK A01 T02480011  RH  021%=      5-min Rain = 0
KEN1 141838Z 26013G19KT 25/01 A2997 RMK A01 T02500010  RH  021%=      5-min Rain = 0
KEN1 141839Z 26017KT 25/01 A2997 RMK A01 T02530005  RH  020%=      5-min Rain = 0
KEN1 141840Z 26014KT 25/00 A2997 RMK A01 T02520004  RH  020%=      5-min Rain = 0
KEN1 141841Z 26016KT 25/00 A2997 RMK A01 T02510003  RH  020%=      5-min Rain = 0
KEN1 141842Z 26015KT 25/00 A2997 RMK A01 T02500003  RH  020%=      5-min Rain = 0
KEN1 141843Z 25011KT 25/01 A2996 RMK A01 T02500005  RH  020%=      5-min Rain = 0
KEN1 141844Z 25012G17KT 25/01 A2996 RMK A01 T02530009  RH  020%=      5-min Rain = 0
KEN1 141845Z 26012KT 25/01 A2996 RMK A01 T02540011  RH  020%=      5-min Rain = 0
KEN1 141846Z 26013KT 25/01 A2996 RMK A01 T02540013  RH  021%=      5-min Rain = 0
KEN1 141847Z 25012KT 25/01 A2996 RMK A01 T02540014  RH  021%=      5-min Rain = 0
KEN1 141848Z 26012KT 26/02 A2996 RMK A01 T02550015  RH  021%=      5-min Rain = 0
KEN1 141849Z 27012KT 26/02 A2996 RMK A01 T02550016  RH  021%=      5-min Rain = 0
KEN1 141850Z 26014KT 25/02 A2996 RMK A01 T02540019  RH  022%=      5-min Rain = 0
KEN1 141851Z 26015KT 25/02 A2996 RMK A01 T02540016  RH  021%=      5-min Rain = 0
KEN1 141852Z 26013KT 25/01 A2996 RMK A01 T02510014  RH  021%=      5-min Rain = 0
KEN1 141853Z 27011KT 25/02 A2996 RMK A01 T02500017  RH  022%=      5-min Rain = 0
KEN1 141854Z 26011KT 25/02 A2995 RMK A01 T02500018  RH  022%=      5-min Rain = 0
KEN1 141855Z 27013KT 25/02 A2995 RMK A01 T02510023  RH  023%=      5-min Rain = 0
KEN1 141856Z 28012KT 25/02 A2995 RMK A01 T02520020  RH  022%=      5-min Rain = 0
KEN1 141857Z 28010KT 25/02 A2995 RMK A01 T02520023  RH  022%=      5-min Rain = 0
KEN1 141858Z 27013KT 25/02 A2995 RMK A01 T02540022  RH  022%=      5-min Rain = 0
KEN1 141859Z 27012KT 26/02 A2995 RMK A01 T02550018  RH  021%=      5-min Rain = 0
KEN1 141900Z 27012KT 25/02 A2995 RMK A01 T02530015  RH  021%=      5-min Rain = 0
KEN1 141901Z 26011KT 25/02 A2995 RMK A01 T02530017  RH  022%=      5-min Rain = 0
KEN1 141902Z 27013KT 25/02 A2995 RMK A01 T02540020  RH  022%=      5-min Rain = 0
KEN1 141903Z 26014KT 26/02 A2995 RMK A01 T02560016  RH  021%=      5-min Rain = 0
KEN1 141904Z 27013KT 26/02 A2995 RMK A01 T02560015  RH  021%=      5-min Rain = 0
KEN1 141905Z 27016KT 26/02 A2995 RMK A01 T02560015  RH  021%=      5-min Rain = 0
KEN1 141906Z 27014KT 26/01 A2995 RMK A01 T02560014  RH  021%=      5-min Rain = 0
KEN1 141907Z 26014KT 26/02 A2994 RMK A01 T02550015  RH  021%=      5-min Rain = 0
KEN1 141908Z 25014KT 26/01 A2994 RMK A01 T02560014  RH  021%=      5-min Rain = 0
KEN1 141909Z 26014KT 26/01 A2994 RMK A01 T02570014  RH  020%=      5-min Rain = 0
KEN1 141910Z 24016KT 26/01 A2994 RMK A01 T02580012  RH  020%=      5-min Rain = 0
KEN1 141911Z 25015KT 26/01 A2994 RMK A01 T02590009  RH  020%=      5-min Rain = 0
KEN1 141912Z 25014KT 26/01 A2994 RMK A01 T02590007  RH  019%=      5-min Rain = 0
KEN1 141913Z 28016KT 26/01 A2994 RMK A01 T02600011  RH  020%=      5-min Rain = 0
KEN1 141914Z 27015KT 26/01 A2994 RMK A01 T02600009  RH  019%=      5-min Rain = 0
KEN1 141915Z 25017KT 26/00 A2994 RMK A01 T02590004  RH  019%=      5-min Rain = 0
KEN1 141916Z 25019KT 26/00 A2994 RMK A01 T02600001  RH  018%=      5-min Rain = 0
KEN1 141917Z 25019KT 26/M00 A2994 RMK A01 T02601002  RH  018%=      5-min Rain = 0
KEN1 141918Z 25019KT 26/M00 A2994 RMK A01 T02591004  RH  018%=      5-min Rain = 0
KEN1 141919Z 25016KT 26/M00 A2994 RMK A01 T02591004  RH  018%=      5-min Rain = 0
KEN1 141920Z 25016KT 26/M00 A2994 RMK A01 T02591002  RH  018%=      5-min Rain = 0
KEN1 141921Z 26016G22KT 26/M00 A2994 RMK A01 T02591002  RH  018%=      5-min Rain = 0
KEN1 141922Z 26018KT 26/M00 A2994 RMK A01 T02591002  RH  018%=      5-min Rain = 0
KEN1 141923Z 26016KT 26/M00 A2994 RMK A01 T02591002  RH  018%=      5-min Rain = 0
KEN1 141924Z 25014KT 26/M00 A2994 RMK A01 T02591001  RH  018%=      5-min Rain = 0
KEN1 141925Z 26010KT 26/00 A2994 RMK A01 T025900-0  RH  018%=      5-min Rain = 0
KEN1 141926Z 26014KT 26/01 A2994 RMK A01 T02600005  RH  019%=      5-min Rain = 0
KEN1 141927Z 26012KT 26/00 A2994 RMK A01 T02610004  RH  019%=      5-min Rain = 0
KEN1 141928Z 25018G23KT 26/00 A2993 RMK A01 T02620002  RH  018%=      5-min Rain = 0
KEN1 141929Z 26018G23KT 26/M01 A2994 RMK A01 T02601009  RH  017%=      5-min Rain = 0
KEN1 141930Z 26018KT 26/M01 A2994 RMK A01 T02571011  RH  017%=      5-min Rain = 0
KEN1 141931Z 26019KT 26/M01 A2994 RMK A01 T02571009  RH  017%=      5-min Rain = 0
KEN1 141932Z 25018KT 26/M01 A2993 RMK A01 T02591009  RH  017%=      5-min Rain = 0
KEN1 141933Z 25018KT 26/M01 A2993 RMK A01 T02611008  RH  017%=      5-min Rain = 0
KEN1 141934Z 26015KT 26/M01 A2993 RMK A01 T02621007  RH  017%=      5-min Rain = 0
KEN1 141935Z 25018KT 26/M01 A2993 RMK A01 T02631005  RH  017%=      5-min Rain = 0
KEN1 141936Z 26017KT 26/M00 A2993 RMK A01 T02631004  RH  017%=      5-min Rain = 0
KEN1 141937Z 26019KT 26/M00 A2993 RMK A01 T02631004  RH  017%=      5-min Rain = 0
KEN1 141938Z 26019KT 26/M01 A2993 RMK A01 T02621006  RH  017%=      5-min Rain = 0
KEN1 141939Z 26018KT 26/M01 A2993 RMK A01 T02611005  RH  017%=      5-min Rain = 0
KEN1 141940Z 27018KT 26/M00 A2993 RMK A01 T02611004  RH  018%=      5-min Rain = 0
KEN1 141941Z 28017KT 26/M00 A2993 RMK A01 T02641003  RH  017%=      5-min Rain = 0
KEN1 141942Z 27017KT 27/M00 A2993 RMK A01 T02671001  RH  017%=      5-min Rain = 0
KEN1 141943Z 27021KT 27/M00 A2993 RMK A01 T02691004  RH  017%=      5-min Rain = 0
KEN1 141944Z 27016KT 27/M00 A2993 RMK A01 T02671004  RH  017%=      5-min Rain = 0
KEN1 141945Z 27017KT 27/M00 A2993 RMK A01 T02661003  RH  017%=      5-min Rain = 0
KEN1 141946Z 26015KT 27/M00 A2993 RMK A01 T02661002  RH  017%=      5-min Rain = 0
KEN1 141947Z 26016G22KT 27/M00 A2993 RMK A01 T02671004  RH  017%=      5-min Rain = 0
KEN1 141948Z 27017KT 27/M00 A2993 RMK A01 T02671002  RH  017%=      5-min Rain = 0
KEN1 141949Z 27020KT 27/M00 A2993 RMK A01 T02691003  RH  017%=      5-min Rain = 0
KEN1 141950Z 26019KT 27/M01 A2993 RMK A01 T02691005  RH  017%=      5-min Rain = 0
KEN1 141951Z 26018KT 27/M01 A2993 RMK A01 T02671006  RH  017%=      5-min Rain = 0
KEN1 141952Z 26017G23KT 27/M00 A2993 RMK A01 T02661003  RH  017%=      5-min Rain = 0
KEN1 141953Z 26019KT 27/M00 A2993 RMK A01 T02661004  RH  017%=      5-min Rain = 0
KEN1 141954Z 26018KT 27/M00 A2993 RMK A01 T02661002  RH  017%=      5-min Rain = 0
KEN1 141955Z 26018G23KT 27/M00 A2992 RMK A01 T02651002  RH  017%=      5-min Rain = 0
KEN1 141956Z 27017KT 27/M00 A2992 RMK A01 T02651003  RH  017%=      5-min Rain = 0
KEN1 141957Z 26020KT 26/M00 A2992 RMK A01 T02641003  RH  017%=      5-min Rain = 0
KEN1 141958Z 25022KT 26/00 A2992 RMK A01 T02630004  RH  018%=      5-min Rain = 0
KEN1 141959Z 26017KT 26/00 A2992 RMK A01 T02630003  RH  018%=      5-min Rain = 0
KEN1 142000Z 25015KT 27/01 A2992 RMK A01 T02650008  RH  019%=      5-min Rain = 0
KEN1 142001Z 24017KT 27/01 A2992 RMK A01 T02670012  RH  019%=      5-min Rain = 0
KEN1 142002Z 24023KT 27/01 A2992 RMK A01 T02680009  RH  019%=      5-min Rain = 0
KEN1 142003Z 25019KT 27/01 A2992 RMK A01 T02670009  RH  019%=      5-min Rain = 0
KEN1 142004Z 25021KT 27/01 A2992 RMK A01 T02680010  RH  019%=      5-min Rain = 0
KEN1 142005Z 25022KT 27/01 A2992 RMK A01 T02690008  RH  018%=      5-min Rain = 0
KEN1 142006Z 25021KT 27/01 A2992 RMK A01 T02690009  RH  018%=      5-min Rain = 0
KEN1 142007Z 25018G26KT 27/01 A2992 RMK A01 T02680011  RH  019%=      5-min Rain = 0
KEN1 142008Z 25021G28KT 27/01 A2992 RMK A01 T02710012  RH  019%=      5-min Rain = 0
KEN1 142009Z 25022KT 27/01 A2992 RMK A01 T02730010  RH  018%=      5-min Rain = 0
KEN1 142010Z 26019KT 27/01 A2992 RMK A01 T02710008  RH  018%=      5-min Rain = 0
KEN1 142011Z 25020KT 27/01 A2992 RMK A01 T02710010  RH  018%=      5-min Rain = 0
KEN1 142012Z 25021KT 27/01 A2992 RMK A01 T02710010  RH  018%=      5-min Rain = 0
KEN1 142013Z 24022KT 27/01 A2992 RMK A01 T02700007  RH  018%=      5-min Rain = 0
KEN1 142014Z 24024KT 27/01 A2992 RMK A01 T02700007  RH  018%=      5-min Rain = 0
KEN1 142015Z 25022KT 27/01 A2992 RMK A01 T02700006  RH  018%=      5-min Rain = 0
KEN1 142016Z 25022KT 27/01 A2992 RMK A01 T02700007  RH  018%=      5-min Rain = 0
KEN1 142017Z 25022G30KT 27/01 A2992 RMK A01 T02690006  RH  018%=      5-min Rain = 0
KEN1 142018Z 25025G30KT 27/00 A2991 RMK A01 T02690001  RH  017%=      5-min Rain = 0
KEN1 142019Z 25020KT 27/00 A2992 RMK A01 T02680002  RH  018%=      5-min Rain = 0
KEN1 142020Z 25023KT 27/00 A2991 RMK A01 T02670002  RH  018%=      5-min Rain = 0
KEN1 142021Z 25022KT 27/00 A2992 RMK A01 T02670000  RH  018%=      5-min Rain = 0
KEN1 142022Z 26019KT 27/00 A2992 RMK A01 T02660001  RH  018%=      5-min Rain = 0
KEN1 142023Z 26021KT 27/00 A2991 RMK A01 T02650001  RH  018%=      5-min Rain = 0
KEN1 142024Z 24021KT 27/00 A2991 RMK A01 T026500-0  RH  018%=      5-min Rain = 0
KEN1 142025Z 25018G23KT 27/M00 A2991 RMK A01 T02651001  RH  018%=      5-min Rain = 0
KEN1 142026Z 26020KT 27/00 A2991 RMK A01 T02670002  RH  018%=      5-min Rain = 0
KEN1 142027Z 26024KT 27/00 A2991 RMK A01 T02680001  RH  017%=      5-min Rain = 0
KEN1 142028Z 26020KT 27/M00 A2992 RMK A01 T02681002  RH  017%=      5-min Rain = 0
KEN1 142029Z 26020KT 27/M00 A2992 RMK A01 T02671003  RH  017%=      5-min Rain = 0
KEN1 142030Z 27021KT 27/M00 A2992 RMK A01 T02661004  RH  017%=      5-min Rain = 0
KEN1 142031Z 26017KT 26/M01 A2992 RMK A01 T02641007  RH  017%=      5-min Rain = 0
KEN1 142032Z 27019KT 26/M00 A2992 RMK A01 T02631004  RH  017%=      5-min Rain = 0
KEN1 142033Z 26019KT 26/M00 A2992 RMK A01 T02621003  RH  018%=      5-min Rain = 0
KEN1 142034Z 25016KT 26/M00 A2991 RMK A01 T02621001  RH  018%=      5-min Rain = 0
KEN1 142035Z 25017G24KT 26/00 A2991 RMK A01 T02620001  RH  018%=      5-min Rain = 0
KEN1 142036Z 25017G23KT 26/M00 A2991 RMK A01 T02621001  RH  018%=      5-min Rain = 0
KEN1 142037Z 25021KT 26/00 A2991 RMK A01 T026200-0  RH  018%=      5-min Rain = 0
KEN1 142038Z 25019G24KT 26/M00 A2991 RMK A01 T02611001  RH  018%=      5-min Rain = 0
KEN1 142039Z 25020KT 26/00 A2991 RMK A01 T02620001  RH  018%=      5-min Rain = 0
KEN1 142040Z 25021KT 26/00 A2991 RMK A01 T02620001  RH  018%=      5-min Rain = 0
KEN1 142041Z 26018G23KT 26/00 A2991 RMK A01 T02620001  RH  018%=      5-min Rain = 0
KEN1 142042Z 26017KT 26/00 A2991 RMK A01 T02640003  RH  018%=      5-min Rain = 0
KEN1 142043Z 25018G23KT 27/00 A2991 RMK A01 T02660004  RH  018%=      5-min Rain = 0
KEN1 142044Z 25022G28KT 27/00 A2991 RMK A01 T02670003  RH  018%=      5-min Rain = 0
KEN1 142045Z 25021G26KT 27/00 A2991 RMK A01 T026700-0  RH  017%=      5-min Rain = 0
KEN1 142046Z 25019G24KT 27/00 A2991 RMK A01 T02660001  RH  018%=      5-min Rain = 0
KEN1 142047Z 26020KT 27/00 A2991 RMK A01 T02680003  RH  018%=      5-min Rain = 0
KEN1 142048Z 26021KT 27/00 A2991 RMK A01 T02700001  RH  017%=      5-min Rain = 0
KEN1 142049Z 26021KT 27/M00 A2991 RMK A01 T02711002  RH  017%=      5-min Rain = 0
KEN1 142050Z 26020KT 27/M00 A299 RMK A01 T02711002  RH  017%=      5-min Rain = 0
KEN1 142051Z 26019KT 27/M00 A299 RMK A01 T02721001  RH  017%=      5-min Rain = 0
KEN1 142052Z 25022KT 27/M00 A299 RMK A01 T02721002  RH  017%=      5-min Rain = 0
KEN1 142053Z 25019KT 27/M00 A299 RMK A01 T02701002  RH  017%=      5-min Rain = 0
KEN1 142054Z 25021KT 27/M00 A299 RMK A01 T02701003  RH  017%=      5-min Rain = 0
KEN1 142055Z 25020G25KT 27/M01 A299 RMK A01 T02691006  RH  017%=      5-min Rain = 0
KEN1 142056Z 25022KT 27/M00 A299 RMK A01 T02691004  RH  017%=      5-min Rain = 0
KEN1 142057Z 25021KT 27/M01 A299 RMK A01 T02691007  RH  016%=      5-min Rain = 0
KEN1 142058Z 25023KT 27/M01 A299 RMK A01 T02691006  RH  016%=      5-min Rain = 0
KEN1 142059Z 25024KT 27/M01 A299 RMK A01 T02691007  RH  016%=      5-min Rain = 0
KEN1 142100Z 25022KT 27/M01 A299 RMK A01 T02691007  RH  016%=      5-min Rain = 0
KEN1 142101Z 25023KT 27/M01 A299 RMK A01 T02691006  RH  017%=      5-min Rain = 0
KEN1 142102Z 25022KT 27/M01 A299 RMK A01 T02691007  RH  016%=      5-min Rain = 0
KEN1 142103Z 25018G23KT 27/M01 A299 RMK A01 T02691006  RH  016%=      5-min Rain = 0
KEN1 142104Z 25017KT 27/M01 A299 RMK A01 T02691005  RH  017%=      5-min Rain = 0
KEN1 142105Z 26015KT 27/M01 A299 RMK A01 T02691005  RH  017%=      5-min Rain = 0
KEN1 142106Z 25014KT 27/M01 A299 RMK A01 T02691005  RH  017%=      5-min Rain = 0
KEN1 142107Z 25016KT 27/M01 A299 RMK A01 T02701005  RH  017%=      5-min Rain = 0
KEN1 142108Z 25018KT 27/M01 A299 RMK A01 T02701007  RH  016%=      5-min Rain = 0
KEN1 142109Z 24018KT 27/M01 A299 RMK A01 T02701006  RH  016%=      5-min Rain = 0
KEN1 142110Z 24019G24KT 27/M01 A299 RMK A01 T02701009  RH  016%=      5-min Rain = 0
KEN1 142111Z 24017KT 27/M01 A299 RMK A01 T02701010  RH  016%=      5-min Rain = 0
KEN1 142112Z 25016G21KT 27/M01 A299 RMK A01 T02701010  RH  016%=      5-min Rain = 0
KEN1 142113Z 24018KT 27/M01 A299 RMK A01 T02711010  RH  016%=      5-min Rain = 0
KEN1 142114Z 24017KT 27/M01 A299 RMK A01 T02711011  RH  016%=      5-min Rain = 0
KEN1 142115Z 25015KT 27/M01 A2989 RMK A01 T02711009  RH  016%=      5-min Rain = 0
KEN1 142116Z 25020KT 27/M01 A2989 RMK A01 T02731013  RH  015%=      5-min Rain = 0
KEN1 142117Z 25019KT 27/M02 A2989 RMK A01 T02741019  RH  015%=      5-min Rain = 0
KEN1 142118Z 25017KT 28/M02 A2989 RMK A01 T02751019  RH  014%=      5-min Rain = 0
KEN1 142119Z 24022KT 28/M03 A2989 RMK A01 T02771025  RH  014%=      5-min Rain = 0
KEN1 142120Z 25025KT 28/M03 A2989 RMK A01 T02771030  RH  013%=      5-min Rain = 0
KEN1 142121Z 26021KT 28/M04 A2989 RMK A01 T02761035  RH  013%=      5-min Rain = 0
KEN1 142122Z 26020KT 28/M04 A2989 RMK A01 T02751036  RH  013%=      5-min Rain = 0
KEN1 142123Z 26024KT 27/M04 A2989 RMK A01 T02741036  RH  013%=      5-min Rain = 0
KEN1 142124Z 25021KT 27/M04 A2989 RMK A01 T02731037  RH  013%=      5-min Rain = 0
KEN1 142125Z 25017KT 27/M04 A2989 RMK A01 T02731035  RH  013%=      5-min Rain = 0
KEN1 142126Z 25018G25KT 28/M03 A2989 RMK A01 T02761031  RH  013%=      5-min Rain = 0
KEN1 142127Z 25022KT 28/M03 A2989 RMK A01 T02781031  RH  013%=      5-min Rain = 0
KEN1 142128Z 25018KT 28/M03 A2989 RMK A01 T02781030  RH  013%=      5-min Rain = 0
KEN1 142129Z 25015G21KT 28/M03 A2989 RMK A01 T02781028  RH  013%=      5-min Rain = 0
KEN1 142130Z 25016KT 28/M03 A2989 RMK A01 T02801025  RH  013%=      5-min Rain = 0
KEN1 142131Z 25019KT 28/M02 A2989 RMK A01 T02811024  RH  013%=      5-min Rain = 0
KEN1 142132Z 25020KT 28/M03 A2989 RMK A01 T02811026  RH  013%=      5-min Rain = 0
KEN1 142133Z 25019KT 28/M03 A2989 RMK A01 T02791033  RH  013%=      5-min Rain = 0
KEN1 142134Z 24022KT 28/M04 A2989 RMK A01 T02781035  RH  013%=      5-min Rain = 0
KEN1 142135Z 25020KT 28/M03 A2989 RMK A01 T02771032  RH  013%=      5-min Rain = 0
KEN1 142136Z 25022KT 28/M03 A2989 RMK A01 T02761034  RH  013%=      5-min Rain = 0
KEN1 142137Z 25022KT 28/M03 A2989 RMK A01 T02751034  RH  013%=      5-min Rain = 0
KEN1 142138Z 25020KT 28/M03 A2989 RMK A01 T02751033  RH  013%=      5-min Rain = 0
KEN1 142139Z 25022KT 28/M03 A2989 RMK A01 T02751034  RH  013%=      5-min Rain = 0
KEN1 142140Z 26022KT 28/M05 A2989 RMK A01 T02751046  RH  012%=      5-min Rain = 0
KEN1 142141Z 26022KT 28/M04 A2989 RMK A01 T02751044  RH  012%=      5-min Rain = 0
KEN1 142142Z 26018KT 28/M04 A2989 RMK A01 T02751042  RH  012%=      5-min Rain = 0
KEN1 142143Z 25021KT 28/M04 A2989 RMK A01 T02751040  RH  012%=      5-min Rain = 0
KEN1 142144Z 25022KT 28/M04 A2989 RMK A01 T02751039  RH  013%=      5-min Rain = 0
KEN1 142145Z 26021G26KT 27/M04 A2989 RMK A01 T02741038  RH  013%=      5-min Rain = 0
KEN1 142146Z 26020G25KT 27/M04 A2989 RMK A01 T02741036  RH  013%=      5-min Rain = 0
KEN1 142147Z 26018KT 27/M03 A2989 RMK A01 T02741034  RH  013%=      5-min Rain = 0
KEN1 142148Z 26019KT 28/M04 A2989 RMK A01 T02751035  RH  013%=      5-min Rain = 0
KEN1 142149Z 26020KT 28/M05 A2989 RMK A01 T02751051  RH  011%=      5-min Rain = 0
KEN1 142150Z 26020KT 27/M05 A2989 RMK A01 T02721053  RH  011%=      5-min Rain = 0
KEN1 142151Z 26018KT 27/M04 A2989 RMK A01 T02701043  RH  012%=      5-min Rain = 0
KEN1 142152Z 25018KT 27/M04 A2989 RMK A01 T02691038  RH  013%=      5-min Rain = 0
KEN1 142153Z 25020G25KT 27/M04 A2989 RMK A01 T02681037  RH  013%=      5-min Rain = 0
KEN1 142154Z 25021KT 27/M04 A2989 RMK A01 T02681041  RH  013%=      5-min Rain = 0
KEN1 142155Z 25021KT 27/M04 A2989 RMK A01 T02681040  RH  013%=      5-min Rain = 0
KEN1 142156Z 26021KT 27/M04 A2989 RMK A01 T02681038  RH  013%=      5-min Rain = 0
KEN1 142157Z 26017KT 27/M04 A2989 RMK A01 T02671035  RH  014%=      5-min Rain = 0
KEN1 142158Z 26018KT 27/M03 A2989 RMK A01 T02661033  RH  014%=      5-min Rain = 0
KEN1 142159Z 25018KT 27/M03 A2989 RMK A01 T02651032  RH  014%=      5-min Rain = 0
KEN1 142200Z 25018KT 26/M03 A2989 RMK A01 T02641033  RH  014%=      5-min Rain = 0
KEN1 142201Z 25017KT 26/M03 A2989 RMK A01 T02621033  RH  014%=      5-min Rain = 0
KEN1 142202Z 25017KT 26/M03 A2989 RMK A01 T02601034  RH  014%=      5-min Rain = 0
KEN1 142203Z 25018KT 26/M03 A2989 RMK A01 T02591034  RH  014%=      5-min Rain = 0
KEN1 142204Z 25018KT 26/M03 A2989 RMK A01 T02591034  RH  014%=      5-min Rain = 0
KEN1 142205Z 25017KT 26/M03 A2989 RMK A01 T02581034  RH  014%=      5-min Rain = 0
KEN1 142206Z 25016KT 26/M04 A2989 RMK A01 T02571035  RH  014%=      5-min Rain = 0
KEN1 142207Z 26015G20KT 26/M04 A2988 RMK A01 T02571035  RH  014%=      5-min Rain = 0
KEN1 142208Z 26016KT 26/M03 A2988 RMK A01 T02561033  RH  015%=      5-min Rain = 0
KEN1 142209Z 26015KT 26/M03 A2988 RMK A01 T02571032  RH  015%=      5-min Rain = 0
KEN1 142210Z 26015KT 26/M03 A2988 RMK A01 T02571031  RH  015%=      5-min Rain = 0
KEN1 142211Z 26013KT 26/M03 A2988 RMK A01 T02581030  RH  015%=      5-min Rain = 0
KEN1 142212Z 26014KT 26/M03 A2988 RMK A01 T02591029  RH  015%=      5-min Rain = 0
KEN1 142213Z 25016KT 26/M03 A2988 RMK A01 T02591029  RH  015%=      5-min Rain = 0
KEN1 142214Z 25013KT 26/M03 A2988 RMK A01 T02601028  RH  015%=      5-min Rain = 0
KEN1 142215Z 25015KT 26/M03 A2988 RMK A01 T02601028  RH  015%=      5-min Rain = 0
KEN1 142216Z 25014KT 26/M03 A2988 RMK A01 T02611027  RH  015%=      5-min Rain = 0
KEN1 142217Z 26015KT 26/M03 A2988 RMK A01 T02621028  RH  015%=      5-min Rain = 0
KEN1 142218Z 25014KT 26/M03 A2988 RMK A01 T02631026  RH  015%=      5-min Rain = 0
KEN1 142219Z 26017KT 26/M03 A2988 RMK A01 T02641027  RH  015%=      5-min Rain = 0
KEN1 142220Z 25017KT 27/M03 A2988 RMK A01 T02651028  RH  014%=      5-min Rain = 0
KEN1 142221Z 25015KT 26/M03 A2988 RMK A01 T02641027  RH  015%=      5-min Rain = 0
KEN1 142222Z 25014KT 26/M03 A2988 RMK A01 T02641027  RH  015%=      5-min Rain = 0
KEN1 142223Z 25015KT 26/M03 A2988 RMK A01 T02631026  RH  015%=      5-min Rain = 0
KEN1 142224Z 25013KT 26/M03 A2988 RMK A01 T02631026  RH  015%=      5-min Rain = 0
KEN1 142225Z 25013KT 26/M03 A2988 RMK A01 T02621025  RH  015%=      5-min Rain = 0
KEN1 142226Z 26013KT 26/M03 A2988 RMK A01 T02621025  RH  015%=      5-min Rain = 0
KEN1 142227Z 25014KT 26/M03 A2988 RMK A01 T02621026  RH  015%=      5-min Rain = 0
KEN1 142228Z 25013KT 26/M03 A2988 RMK A01 T02621028  RH  015%=      5-min Rain = 0
KEN1 142229Z 26013KT 26/M03 A2988 RMK A01 T02621026  RH  015%=      5-min Rain = 0
KEN1 142230Z 25013KT 26/M03 A2988 RMK A01 T02621025  RH  015%=      5-min Rain = 0
KEN1 142231Z 25013KT 26/M03 A2988 RMK A01 T02621025  RH  015%=      5-min Rain = 0
KEN1 142232Z 25010KT 26/M02 A2988 RMK A01 T02631024  RH  015%=      5-min Rain = 0
KEN1 142233Z 26011KT 26/M02 A2988 RMK A01 T02631021  RH  015%=      5-min Rain = 0
KEN1 142234Z 26012KT 26/M02 A2988 RMK A01 T02631024  RH  015%=      5-min Rain = 0
KEN1 142235Z 25012KT 26/M02 A2988 RMK A01 T02641022  RH  015%=      5-min Rain = 0
KEN1 142236Z 25011KT 26/M02 A2988 RMK A01 T02631022  RH  015%=      5-min Rain = 0
KEN1 142237Z 26012KT 26/M02 A2988 RMK A01 T02631021  RH  015%=      5-min Rain = 0
KEN1 142238Z 25013KT 26/M02 A2988 RMK A01 T02611024  RH  015%=      5-min Rain = 0
KEN1 142239Z 26013KT 26/M03 A2988 RMK A01 T02601025  RH  015%=      5-min Rain = 0
KEN1 142240Z 25012KT 26/M03 A2988 RMK A01 T02581025  RH  015%=      5-min Rain = 0
KEN1 142241Z 25011KT 26/M02 A2988 RMK A01 T02581024  RH  015%=      5-min Rain = 0
KEN1 142242Z 25011KT 26/M02 A2988 RMK A01 T02571024  RH  016%=      5-min Rain = 0
KEN1 142243Z 24012KT 26/M02 A2988 RMK A01 T02571024  RH  016%=      5-min Rain = 0
KEN1 142244Z 25012KT 26/M03 A2988 RMK A01 T02561025  RH  015%=      5-min Rain = 0
KEN1 142245Z 24013KT 26/M03 A2988 RMK A01 T02551026  RH  016%=      5-min Rain = 0
KEN1 142246Z 24013KT 25/M03 A2988 RMK A01 T02541026  RH  016%=      5-min Rain = 0
KEN1 142247Z 24017KT 25/M03 A2988 RMK A01 T02521030  RH  015%=      5-min Rain = 0
KEN1 142248Z 24018KT 25/M04 A2988 RMK A01 T02521036  RH  015%=      5-min Rain = 0
KEN1 142249Z 24017KT 25/M04 A2988 RMK A01 T02521037  RH  015%=      5-min Rain = 0
KEN1 142250Z 24016KT 25/M04 A2988 RMK A01 T02521038  RH  014%=      5-min Rain = 0
KEN1 142251Z 25015KT 25/M04 A2988 RMK A01 T02511038  RH  014%=      5-min Rain = 0
KEN1 142252Z 25014KT 25/M04 A2988 RMK A01 T02491037  RH  015%=      5-min Rain = 0
KEN1 142253Z 25013KT 25/M04 A2988 RMK A01 T02471038  RH  015%=      5-min Rain = 0
KEN1 142254Z 25012KT 25/M04 A2988 RMK A01 T02461037  RH  015%=      5-min Rain = 0
KEN1 142255Z 25013KT 24/M04 A2988 RMK A01 T02441038  RH  015%=      5-min Rain = 0
KEN1 142256Z 25013KT 24/M04 A2988 RMK A01 T02431038  RH  015%=      5-min Rain = 0
KEN1 142257Z 25013KT 24/M04 A2988 RMK A01 T02431039  RH  015%=      5-min Rain = 0
KEN1 142258Z 25013KT 24/M04 A2988 RMK A01 T02421040  RH  015%=      5-min Rain = 0
KEN1 142259Z 25012KT 24/M04 A2988 RMK A01 T02421040  RH  015%=      5-min Rain = 0
KEN1 142300Z 25012KT 24/M04 A2988 RMK A01 T02401040  RH  015%=      5-min Rain = 0
KEN1 142301Z 25012KT 24/M04 A2988 RMK A01 T02391041  RH  015%=      5-min Rain = 0
KEN1 142302Z 25011KT 24/M04 A2988 RMK A01 T02381041  RH  015%=      5-min Rain = 0
KEN1 142303Z 25010KT 24/M04 A2988 RMK A01 T02371041  RH  015%=      5-min Rain = 0
KEN1 142304Z 25011KT 24/M04 A2988 RMK A01 T02361041  RH  016%=      5-min Rain = 0
KEN1 142305Z 25010KT 24/M04 A2988 RMK A01 T02351041  RH  016%=      5-min Rain = 0
KEN1 142306Z 25010KT 24/M04 A2988 RMK A01 T02351041  RH  016%=      5-min Rain = 0
KEN1 142307Z 25009KT 23/M04 A2988 RMK A01 T02341041  RH  016%=      5-min Rain = 0
KEN1 142308Z 24008KT 23/M04 A2988 RMK A01 T02341041  RH  016%=      5-min Rain = 0
KEN1 142309Z 24009KT 23/M04 A2988 RMK A01 T02331040  RH  016%=      5-min Rain = 0
KEN1 142310Z 24008KT 23/M04 A2988 RMK A01 T02331041  RH  016%=      5-min Rain = 0
KEN1 142311Z 24009KT 23/M04 A2988 RMK A01 T02331040  RH  016%=      5-min Rain = 0
KEN1 142312Z 24009KT 23/M04 A2988 RMK A01 T02331040  RH  016%=      5-min Rain = 0
KEN1 142313Z 24008KT 23/M04 A2988 RMK A01 T02321040  RH  016%=      5-min Rain = 0
KEN1 142314Z 23007KT 23/M04 A2988 RMK A01 T02321040  RH  016%=      5-min Rain = 0
KEN1 142315Z 23006KT 23/M04 A2988 RMK A01 T02301039  RH  016%=      5-min Rain = 0
KEN1 142316Z 23006KT 23/M04 A2988 RMK A01 T02291039  RH  016%=      5-min Rain = 0
KEN1 142317Z 23007KT 23/M04 A2988 RMK A01 T02271038  RH  017%=      5-min Rain = 0
KEN1 142318Z 23006KT 23/M04 A2988 RMK A01 T02251038  RH  017%=      5-min Rain = 0
KEN1 142319Z 22006KT 22/M04 A2988 RMK A01 T02231037  RH  017%=      5-min Rain = 0
KEN1 142320Z 22007KT 22/M04 A2988 RMK A01 T02211036  RH  018%=      5-min Rain = 0
KEN1 142321Z 22007KT 22/M04 A2988 RMK A01 T02181036  RH  018%=      5-min Rain = 0
KEN1 142322Z 22007KT 22/M04 A2988 RMK A01 T02161035  RH  018%=      5-min Rain = 0
KEN1 142323Z 22007KT 21/M03 A2988 RMK A01 T02141034  RH  019%=      5-min Rain = 0
KEN1 142324Z 22008KT 21/M03 A2988 RMK A01 T02131034  RH  019%=      5-min Rain = 0
KEN1 142325Z 22007KT 21/M03 A2988 RMK A01 T02121033  RH  019%=      5-min Rain = 0
KEN1 142326Z 22008KT 21/M03 A2988 RMK A01 T02101033  RH  019%=      5-min Rain = 0
KEN1 142327Z 22008KT 21/M03 A2988 RMK A01 T02091032  RH  020%=      5-min Rain = 0
KEN1 142328Z 22008KT 21/M03 A2988 RMK A01 T02081032  RH  020%=      5-min Rain = 0
KEN1 142329Z 22007KT 21/M03 A2988 RMK A01 T02071031  RH  020%=      5-min Rain = 0
KEN1 142330Z 22007KT 21/M03 A2988 RMK A01 T02061030  RH  020%=      5-min Rain = 0
KEN1 142331Z 22007KT 20/M03 A2988 RMK A01 T02041030  RH  021%=      5-min Rain = 0
KEN1 142332Z 22007KT 20/M03 A2988 RMK A01 T02021029  RH  021%=      5-min Rain = 0
KEN1 142333Z 22006KT 20/M03 A2988 RMK A01 T02011030  RH  021%=      5-min Rain = 0
KEN1 142334Z 22006KT 20/M03 A2988 RMK A01 T02001029  RH  021%=      5-min Rain = 0
KEN1 142335Z 22007KT 20/M03 A2988 RMK A01 T01991028  RH  021%=      5-min Rain = 0
KEN1 142336Z 21007KT 20/M03 A2988 RMK A01 T01971029  RH  022%=      5-min Rain = 0
KEN1 142337Z 21007KT 20/M03 A2988 RMK A01 T01961028  RH  022%=      5-min Rain = 0
KEN1 142338Z 22008KT 20/M03 A2988 RMK A01 T01951028  RH  022%=      5-min Rain = 0
KEN1 142339Z 22009KT 19/M03 A2988 RMK A01 T01931028  RH  022%=      5-min Rain = 0
KEN1 142340Z 22009KT 19/M03 A2988 RMK A01 T01921028  RH  022%=      5-min Rain = 0
KEN1 142341Z 22008KT 19/M03 A2988 RMK A01 T01921029  RH  022%=      5-min Rain = 0
KEN1 142342Z 22008KT 19/M03 A2988 RMK A01 T01931028  RH  022%=      5-min Rain = 0
KEN1 142343Z 22008KT 19/M03 A2988 RMK A01 T01931028  RH  022%=      5-min Rain = 0
KEN1 142344Z 23007KT 19/M03 A2988 RMK A01 T01941028  RH  022%=      5-min Rain = 0
KEN1 142345Z 23007KT 19/M03 A2988 RMK A01 T01931027  RH  022%=      5-min Rain = 0
KEN1 142346Z 23007KT 19/M03 A2988 RMK A01 T01921026  RH  023%=      5-min Rain = 0
KEN1 142347Z 23005KT 19/M03 A2988 RMK A01 T01901027  RH  023%=      5-min Rain = 0
KEN1 142348Z 23004KT 19/M03 A2988 RMK A01 T01891028  RH  023%=      5-min Rain = 0
KEN1 142349Z 24004KT 19/M03 A2988 RMK A01 T01891028  RH  023%=      5-min Rain = 0
KEN1 142350Z 24004KT 19/M03 A2988 RMK A01 T01881028  RH  023%=      5-min Rain = 0
KEN1 142351Z 24004KT 19/M03 A2988 RMK A01 T01891028  RH  023%=      5-min Rain = 0
KEN1 142352Z 23005KT 19/M03 A2988 RMK A01 T01911027  RH  023%=      5-min Rain = 0
KEN1 142353Z 23005KT 19/M03 A2988 RMK A01 T01921027  RH  023%=      5-min Rain = 0
KEN1 142354Z 24005KT 19/M03 A2989 RMK A01 T01921027  RH  023%=      5-min Rain = 0
KEN1 142355Z 24005KT 19/M03 A2989 RMK A01 T01921027  RH  023%=      5-min Rain = 0
KEN1 142356Z 24005KT 19/M03 A2989 RMK A01 T01921027  RH  023%=      5-min Rain = 0
KEN1 142357Z 24005KT 19/M03 A2989 RMK A01 T01921027  RH  023%=      5-min Rain = 0
KEN1 142358Z 23006KT 19/M03 A2989 RMK A01 T01901027  RH  023%=      5-min Rain = 0
KEN1 142359Z 23006KT 19/M03 A2988 RMK A01 T01891027  RH  023%=      5-min Rain = 0
KEN1 150000Z 23006KT 19/M03 A2988 RMK A01 T01881026  RH  023%=      5-min Rain = 0
KEN1 150001Z 23006KT 19/M03 A2988 RMK A01 T01871026  RH  023%=      5-min Rain = 0
KEN1 150002Z 23007KT 19/M03 A2988 RMK A01 T01871025  RH  024%=      5-min Rain = 0
KEN1 150003Z 23007KT 19/M03 A2988 RMK A01 T01861025  RH  024%=      5-min Rain = 0
KEN1 150004Z 23007KT 18/M03 A2989 RMK A01 T01841025  RH  024%=      5-min Rain = 0
KEN1 150005Z 23007KT 18/M03 A2989 RMK A01 T01831025  RH  024%=      5-min Rain = 0
KEN1 150006Z 23007KT 18/M02 A2989 RMK A01 T01811024  RH  025%=      5-min Rain = 0
KEN1 150007Z 22007KT 18/M02 A2989 RMK A01 T01801024  RH  025%=      5-min Rain = 0
KEN1 150008Z 22008KT 18/M02 A2989 RMK A01 T01771024  RH  025%=      5-min Rain = 0
KEN1 150009Z 22008KT 18/M02 A2989 RMK A01 T01751024  RH  026%=      5-min Rain = 0
KEN1 150010Z 22008KT 18/M02 A2989 RMK A01 T01751024  RH  026%=      5-min Rain = 0
KEN1 150011Z 22007KT 18/M03 A2989 RMK A01 T01751025  RH  026%=      5-min Rain = 0
KEN1 150012Z 22007KT 18/M02 A2989 RMK A01 T01751024  RH  026%=      5-min Rain = 0
KEN1 150013Z 21008KT 17/M02 A2989 RMK A01 T01741024  RH  026%=      5-min Rain = 0
KEN1 150014Z 22008KT 17/M02 A2989 RMK A01 T01731024  RH  026%=      5-min Rain = 0
KEN1 150015Z 22008KT 17/M02 A2989 RMK A01 T01721024  RH  026%=      5-min Rain = 0
KEN1 150016Z 22007KT 17/M02 A2989 RMK A01 T01721024  RH  026%=      5-min Rain = 0
KEN1 150017Z 22008KT 17/M02 A2989 RMK A01 T01721024  RH  026%=      5-min Rain = 0
KEN1 150018Z 22008KT 17/M02 A2989 RMK A01 T01721024  RH  026%=      5-min Rain = 0
KEN1 150019Z 22008KT 17/M02 A2989 RMK A01 T01701023  RH  027%=      5-min Rain = 0
KEN1 150020Z 22008KT 17/M02 A2989 RMK A01 T01691023  RH  027%=      5-min Rain = 0
KEN1 150021Z 21008KT 17/M02 A2989 RMK A01 T01701023  RH  027%=      5-min Rain = 0
KEN1 150022Z 23008KT 17/M02 A2989 RMK A01 T01721022  RH  027%=      5-min Rain = 0
KEN1 150023Z 23009KT 17/M02 A2989 RMK A01 T01721023  RH  026%=      5-min Rain = 0
KEN1 150024Z 23008KT 18/M02 A2989 RMK A01 T01751023  RH  026%=      5-min Rain = 0
KEN1 150025Z 23008KT 18/M02 A2989 RMK A01 T01761022  RH  026%=      5-min Rain = 0
KEN1 150026Z 23008KT 18/M02 A2989 RMK A01 T01781022  RH  025%=      5-min Rain = 0
KEN1 150027Z 23009KT 18/M02 A2989 RMK A01 T01811022  RH  025%=      5-min Rain = 0
KEN1 150028Z 24009KT 18/M02 A2989 RMK A01 T01831022  RH  025%=      5-min Rain = 0
KEN1 150029Z 24009KT 19/M02 A2989 RMK A01 T01851022  RH  024%=      5-min Rain = 0
KEN1 150030Z 24010KT 19/M02 A2989 RMK A01 T01861022  RH  024%=      5-min Rain = 0
KEN1 150031Z 24010KT 19/M02 A2989 RMK A01 T01881023  RH  024%=      5-min Rain = 0
KEN1 150032Z 24010KT 19/M02 A2989 RMK A01 T01901023  RH  024%=      5-min Rain = 0
KEN1 150033Z 24010KT 19/M02 A2989 RMK A01 T01911023  RH  023%=      5-min Rain = 0
KEN1 150034Z 24010KT 19/M02 A2989 RMK A01 T01921023  RH  023%=      5-min Rain = 0
KEN1 150035Z 23010KT 19/M02 A2989 RMK A01 T01921023  RH  023%=      5-min Rain = 0
KEN1 150036Z 24010KT 19/M02 A2989 RMK A01 T01901023  RH  023%=      5-min Rain = 0
KEN1 150037Z 24010KT 19/M02 A2989 RMK A01 T01881024  RH  024%=      5-min Rain = 0
KEN1 150038Z 24011KT 19/M02 A2989 RMK A01 T01861024  RH  024%=      5-min Rain = 0
KEN1 150039Z 24011KT 19/M02 A2989 RMK A01 T01861024  RH  024%=      5-min Rain = 0
KEN1 150040Z 24010KT 19/M02 A2989 RMK A01 T01861024  RH  024%=      5-min Rain = 0
KEN1 150041Z 24010KT 19/M03 A2989 RMK A01 T01861025  RH  024%=      5-min Rain = 0
KEN1 150042Z 24010KT 19/M02 A2989 RMK A01 T01851024  RH  024%=      5-min Rain = 0
KEN1 150043Z 24010KT 18/M02 A2989 RMK A01 T01841023  RH  024%=      5-min Rain = 0
KEN1 150044Z 24010KT 18/M02 A2989 RMK A01 T01811023  RH  025%=      5-min Rain = 0
KEN1 150045Z 24010KT 18/M02 A2989 RMK A01 T01791023  RH  025%=      5-min Rain = 0
KEN1 150046Z 24010KT 18/M02 A2989 RMK A01 T01781023  RH  025%=      5-min Rain = 0
KEN1 150047Z 24009KT 18/M02 A2989 RMK A01 T01781023  RH  025%=      5-min Rain = 0
KEN1 150048Z 24009KT 18/M02 A2989 RMK A01 T01781022  RH  025%=      5-min Rain = 0
KEN1 150049Z 24009KT 18/M02 A2989 RMK A01 T01781023  RH  025%=      5-min Rain = 0
KEN1 150050Z 24009KT 18/M02 A2989 RMK A01 T01781023  RH  025%=      5-min Rain = 0
KEN1 150051Z 23009KT 18/M02 A2989 RMK A01 T01781023  RH  025%=      5-min Rain = 0
KEN1 150052Z 23010KT 18/M02 A2989 RMK A01 T01761022  RH  026%=      5-min Rain = 0
KEN1 150053Z 23010KT 17/M02 A2989 RMK A01 T01731022  RH  026%=      5-min Rain = 0
KEN1 150054Z 23010KT 17/M02 A2989 RMK A01 T01711021  RH  027%=      5-min Rain = 0
KEN1 150055Z 23010KT 17/M02 A2989 RMK A01 T01681021  RH  027%=      5-min Rain = 0
KEN1 150056Z 23011KT 17/M02 A2989 RMK A01 T01661021  RH  028%=      5-min Rain = 0
KEN1 150057Z 23011KT 16/M02 A2989 RMK A01 T01641021  RH  028%=      5-min Rain = 0
KEN1 150058Z 23011KT 16/M02 A2989 RMK A01 T01621021  RH  028%=      5-min Rain = 0
KEN1 150059Z 23010KT 16/M02 A2989 RMK A01 T01611021  RH  029%=      5-min Rain = 0
KEN1 150100Z 23010KT 16/M02 A2989 RMK A01 T01601021  RH  029%=      5-min Rain = 0
KEN1 150101Z 23010KT 16/M02 A2989 RMK A01 T01601021  RH  029%=      5-min Rain = 0
KEN1 150102Z 23010KT 16/M02 A2989 RMK A01 T01591021  RH  029%=      5-min Rain = 0
KEN1 150103Z 23010KT 16/M02 A2989 RMK A01 T01591020  RH  029%=      5-min Rain = 0
KEN1 150104Z 24009KT 16/M02 A2989 RMK A01 T01591021  RH  029%=      5-min Rain = 0
KEN1 150105Z 23009KT 16/M02 A299 RMK A01 T01591020  RH  029%=      5-min Rain = 0
KEN1 150106Z 23008KT 16/M02 A2989 RMK A01 T01591021  RH  029%=      5-min Rain = 0
KEN1 150107Z 24008KT 16/M02 A2989 RMK A01 T01601021  RH  029%=      5-min Rain = 0
KEN1 150108Z 24007KT 16/M02 A2989 RMK A01 T01591021  RH  029%=      5-min Rain = 0
KEN1 150109Z 24008KT 16/M02 A2989 RMK A01 T01581021  RH  029%=      5-min Rain = 0
KEN1 150110Z 24007KT 16/M02 A2989 RMK A01 T01561021  RH  030%=      5-min Rain = 0
KEN1 150111Z 24008KT 15/M02 A2989 RMK A01 T01541022  RH  030%=      5-min Rain = 0
KEN1 150112Z 24007KT 15/M02 A2989 RMK A01 T01531022  RH  030%=      5-min Rain = 0
KEN1 150113Z 24007KT 15/M02 A2989 RMK A01 T01521023  RH  030%=      5-min Rain = 0
KEN1 150114Z 24007KT 15/M02 A2989 RMK A01 T01521024  RH  030%=      5-min Rain = 0
KEN1 150115Z 24007KT 15/M03 A2989 RMK A01 T01521025  RH  029%=      5-min Rain = 0
KEN1 150116Z 24007KT 15/M03 A299 RMK A01 T01531025  RH  029%=      5-min Rain = 0
KEN1 150117Z 22006KT 15/M03 A299 RMK A01 T01531026  RH  029%=      5-min Rain = 0
KEN1 150118Z 23008KT 15/M02 A299 RMK A01 T01531024  RH  030%=      5-min Rain = 0
KEN1 150119Z 22006KT 15/M02 A299 RMK A01 T01521023  RH  030%=      5-min Rain = 0
KEN1 150120Z 21007KT 15/M02 A299 RMK A01 T01491021  RH  031%=      5-min Rain = 0
KEN1 150121Z 22008KT 15/M02 A299 RMK A01 T01461021  RH  032%=      5-min Rain = 0
KEN1 150122Z 22007KT 14/M02 A299 RMK A01 T01441021  RH  032%=      5-min Rain = 0
KEN1 150123Z 22007KT 14/M02 A299 RMK A01 T01431021  RH  032%=      5-min Rain = 0
KEN1 150124Z 22007KT 14/M02 A299 RMK A01 T01431021  RH  032%=      5-min Rain = 0
KEN1 150125Z 22007KT 14/M02 A299 RMK A01 T01431021  RH  032%=      5-min Rain = 0
KEN1 150126Z 22007KT 14/M02 A299 RMK A01 T01441021  RH  032%=      5-min Rain = 0
KEN1 150127Z 22007KT 14/M02 A299 RMK A01 T01441020  RH  032%=      5-min Rain = 0
KEN1 150128Z 22007KT 14/M02 A299 RMK A01 T01431020  RH  032%=      5-min Rain = 0
KEN1 150129Z 22007KT 14/M02 A299 RMK A01 T01431021  RH  032%=      5-min Rain = 0
KEN1 150130Z 23007KT 15/M02 A299 RMK A01 T01451023  RH  031%=      5-min Rain = 0
KEN1 150131Z 23006KT 15/M02 A299 RMK A01 T01491024  RH  030%=      5-min Rain = 0
KEN1 150132Z 22006KT 15/M03 A299 RMK A01 T01531025  RH  029%=      5-min Rain = 0
KEN1 150133Z 21006KT 16/M03 A299 RMK A01 T01551025  RH  029%=      5-min Rain = 0
KEN1 150134Z 20005KT 16/M02 A299 RMK A01 T01561024  RH  029%=      5-min Rain = 0
KEN1 150135Z 20006KT 16/M02 A299 RMK A01 T01571023  RH  029%=      5-min Rain = 0
KEN1 150136Z 18005KT 16/M02 A299 RMK A01 T01571023  RH  029%=      5-min Rain = 0
KEN1 150137Z 18005KT 16/M02 A299 RMK A01 T01561022  RH  029%=      5-min Rain = 0
KEN1 150138Z 17004KT 15/M02 A299 RMK A01 T01531021  RH  030%=      5-min Rain = 0
KEN1 150139Z 17005KT 15/M02 A299 RMK A01 T01501020  RH  031%=      5-min Rain = 0
KEN1 150140Z 17005KT 15/M02 A299 RMK A01 T01471020  RH  032%=      5-min Rain = 0
KEN1 150141Z 17005KT 15/M02 A299 RMK A01 T01451019  RH  032%=      5-min Rain = 0
KEN1 150142Z 17005KT 14/M02 A299 RMK A01 T01431019  RH  033%=      5-min Rain = 0
KEN1 150143Z 17004KT 14/M02 A299 RMK A01 T01421018  RH  033%=      5-min Rain = 0
KEN1 150144Z 18004KT 14/M02 A299 RMK A01 T01401019  RH  033%=      5-min Rain = 0
KEN1 150145Z 19004KT 14/M02 A299 RMK A01 T01401020  RH  033%=      5-min Rain = 0
KEN1 150146Z 19004KT 14/M02 A299 RMK A01 T01431020  RH  032%=      5-min Rain = 0
KEN1 150147Z 21004KT 14/M02 A299 RMK A01 T01441020  RH  032%=      5-min Rain = 0
KEN1 150148Z 21005KT 15/M02 A299 RMK A01 T01471022  RH  031%=      5-min Rain = 0
KEN1 150149Z 22005KT 15/M02 A299 RMK A01 T01501021  RH  031%=      5-min Rain = 0
KEN1 150150Z 22005KT 15/M02 A299 RMK A01 T01501022  RH  031%=      5-min Rain = 0
KEN1 150151Z 22005KT 15/M02 A299 RMK A01 T01501023  RH  030%=      5-min Rain = 0
KEN1 150152Z 22005KT 15/M02 A299 RMK A01 T01501023  RH  030%=      5-min Rain = 0
KEN1 150153Z 23005KT 15/M02 A299 RMK A01 T01501022  RH  030%=      5-min Rain = 0
KEN1 150154Z 23006KT 15/M02 A299 RMK A01 T01511024  RH  030%=      5-min Rain = 0
KEN1 150155Z 24007KT 15/M03 A299 RMK A01 T01511025  RH  030%=      5-min Rain = 0
KEN1 150156Z 24008KT 15/M03 A299 RMK A01 T01531026  RH  029%=      5-min Rain = 0
KEN1 150157Z 24008KT 16/M03 A299 RMK A01 T01551028  RH  028%=      5-min Rain = 0
KEN1 150158Z 24010KT 16/M03 A299 RMK A01 T01621029  RH  027%=      5-min Rain = 0
KEN1 150159Z 24012KT 17/M03 A299 RMK A01 T01691029  RH  026%=      5-min Rain = 0
KEN1 150200Z 25010KT 18/M03 A299 RMK A01 T01761030  RH  024%=      5-min Rain = 0
KEN1 150201Z 25009KT 18/M03 A299 RMK A01 T01791030  RH  024%=      5-min Rain = 0
KEN1 150202Z 25009KT 18/M03 A299 RMK A01 T01801031  RH  024%=      5-min Rain = 0
KEN1 150203Z 25009KT 18/M03 A299 RMK A01 T01801032  RH  024%=      5-min Rain = 0
KEN1 150204Z 25010KT 18/M03 A299 RMK A01 T01801032  RH  023%=      5-min Rain = 0
KEN1 150205Z 25008KT 18/M03 A299 RMK A01 T01801032  RH  023%=      5-min Rain = 0
KEN1 150206Z 26010KT 18/M03 A299 RMK A01 T01791032  RH  024%=      5-min Rain = 0
KEN1 150207Z 26009KT 18/M03 A299 RMK A01 T01791032  RH  024%=      5-min Rain = 0
KEN1 150208Z 25010KT 18/M03 A299 RMK A01 T01791032  RH  024%=      5-min Rain = 0
KEN1 150209Z 25010KT 18/M03 A299 RMK A01 T01791032  RH  024%=      5-min Rain = 0
KEN1 150210Z 26010KT 18/M03 A299 RMK A01 T01791032  RH  024%=      5-min Rain = 0
KEN1 150211Z 26010KT 18/M03 A299 RMK A01 T01791032  RH  024%=      5-min Rain = 0
KEN1 150212Z 26010KT 18/M03 A299 RMK A01 T01791032  RH  023%=      5-min Rain = 0
KEN1 150213Z 26010KT 18/M03 A299 RMK A01 T01791033  RH  023%=      5-min Rain = 0
KEN1 150214Z 26010KT 18/M03 A299 RMK A01 T01791032  RH  024%=      5-min Rain = 0
KEN1 150215Z 26010KT 18/M03 A299 RMK A01 T01771032  RH  024%=      5-min Rain = 0
KEN1 150216Z 26009KT 18/M03 A299 RMK A01 T01751032  RH  024%=      5-min Rain = 0
KEN1 150217Z 26009KT 17/M03 A299 RMK A01 T01731032  RH  025%=      5-min Rain = 0
KEN1 150218Z 26008KT 17/M03 A299 RMK A01 T01711031  RH  025%=      5-min Rain = 0
KEN1 150219Z 27008KT 17/M03 A299 RMK A01 T01691031  RH  025%=      5-min Rain = 0
KEN1 150220Z 27008KT 17/M03 A299 RMK A01 T01671031  RH  026%=      5-min Rain = 0
KEN1 150221Z 26008KT 17/M03 A299 RMK A01 T01651031  RH  026%=      5-min Rain = 0
KEN1 150222Z 27008KT 16/M03 A299 RMK A01 T01631031  RH  026%=      5-min Rain = 0
KEN1 150223Z 26008KT 16/M03 A299 RMK A01 T01611031  RH  027%=      5-min Rain = 0
KEN1 150224Z 26007KT 16/M03 A299 RMK A01 T01601030  RH  027%=      5-min Rain = 0
KEN1 150225Z 26008KT 16/M03 A299 RMK A01 T01591030  RH  027%=      5-min Rain = 0
KEN1 150226Z 26008KT 16/M03 A299 RMK A01 T01581030  RH  027%=      5-min Rain = 0
KEN1 150227Z 26008KT 16/M03 A299 RMK A01 T01561030  RH  028%=      5-min Rain = 0
KEN1 150228Z 26008KT 16/M03 A299 RMK A01 T01551030  RH  028%=      5-min Rain = 0
KEN1 150229Z 26008KT 15/M03 A299 RMK A01 T01541030  RH  028%=      5-min Rain = 0
KEN1 150230Z 26009KT 15/M03 A299 RMK A01 T01531030  RH  028%=      5-min Rain = 0
KEN1 150231Z 25010KT 15/M03 A299 RMK A01 T01521031  RH  028%=      5-min Rain = 0
KEN1 150232Z 25010KT 15/M03 A299 RMK A01 T01521031  RH  028%=      5-min Rain = 0
KEN1 150233Z 25011KT 15/M03 A299 RMK A01 T01531032  RH  028%=      5-min Rain = 0
KEN1 150234Z 25011KT 16/M03 A299 RMK A01 T01561032  RH  027%=      5-min Rain = 0
KEN1 150235Z 25011KT 16/M03 A299 RMK A01 T01591032  RH  027%=      5-min Rain = 0
KEN1 150236Z 25011KT 16/M03 A299 RMK A01 T01631034  RH  026%=      5-min Rain = 0
KEN1 150237Z 25010KT 17/M03 A299 RMK A01 T01671034  RH  025%=      5-min Rain = 0
KEN1 150238Z 25010KT 17/M03 A299 RMK A01 T01701034  RH  025%=      5-min Rain = 0
KEN1 150239Z 26010KT 17/M04 A299 RMK A01 T01721035  RH  024%=      5-min Rain = 0
KEN1 150240Z 26009KT 17/M04 A299 RMK A01 T01741035  RH  024%=      5-min Rain = 0
KEN1 150241Z 26009KT 18/M04 A299 RMK A01 T01751036  RH  024%=      5-min Rain = 0
KEN1 150242Z 26008KT 18/M04 A299 RMK A01 T01751035  RH  024%=      5-min Rain = 0
KEN1 150243Z 26008KT 17/M04 A299 RMK A01 T01731035  RH  024%=      5-min Rain = 0
KEN1 150244Z 26008KT 17/M04 A299 RMK A01 T01711035  RH  024%=      5-min Rain = 0
KEN1 150245Z 26008KT 17/M04 A299 RMK A01 T01691035  RH  024%=      5-min Rain = 0
KEN1 150246Z 26009KT 17/M04 A299 RMK A01 T01671035  RH  025%=      5-min Rain = 0
KEN1 150247Z 26009KT 17/M03 A299 RMK A01 T01661034  RH  025%=      5-min Rain = 0
KEN1 150248Z 26009KT 16/M04 A299 RMK A01 T01641035  RH  025%=      5-min Rain = 0
KEN1 150249Z 26010KT 16/M04 A2991 RMK A01 T01641035  RH  026%=      5-min Rain = 0
KEN1 150250Z 26010KT 16/M04 A2991 RMK A01 T01641035  RH  025%=      5-min Rain = 0
KEN1 150251Z 26010KT 16/M04 A2991 RMK A01 T01641036  RH  025%=      5-min Rain = 0
KEN1 150252Z 26010KT 17/M04 A2991 RMK A01 T01661036  RH  025%=      5-min Rain = 0
KEN1 150253Z 26011KT 17/M04 A2991 RMK A01 T01661037  RH  025%=      5-min Rain = 0
KEN1 150254Z 25011KT 17/M04 A2991 RMK A01 T01671037  RH  025%=      5-min Rain = 0
KEN1 150255Z 26011KT 17/M04 A2991 RMK A01 T01671037  RH  024%=      5-min Rain = 0
KEN1 150256Z 26011KT 17/M04 A2991 RMK A01 T01681037  RH  024%=      5-min Rain = 0
KEN1 150257Z 26011KT 17/M04 A2991 RMK A01 T01681038  RH  024%=      5-min Rain = 0
KEN1 150258Z 25012KT 17/M04 A2991 RMK A01 T01691039  RH  024%=      5-min Rain = 0
KEN1 150259Z 25011KT 17/M04 A2991 RMK A01 T01711039  RH  024%=      5-min Rain = 0
KEN1 150300Z 26011KT 17/M04 A2991 RMK A01 T01721040  RH  023%=      5-min Rain = 0
KEN1 150301Z 25011KT 17/M04 A2991 RMK A01 T01721040  RH  023%=      5-min Rain = 0
KEN1 150302Z 26012KT 17/M04 A2991 RMK A01 T01711040  RH  023%=      5-min Rain = 0
KEN1 150303Z 26011KT 17/M04 A2991 RMK A01 T01701040  RH  023%=      5-min Rain = 0
KEN1 150304Z 26012KT 17/M04 A2991 RMK A01 T01691040  RH  024%=      5-min Rain = 0
KEN1 150305Z 26011KT 17/M04 A2991 RMK A01 T01681040  RH  024%=      5-min Rain = 0
KEN1 150306Z 26011KT 17/M04 A2991 RMK A01 T01671040  RH  024%=      5-min Rain = 0
KEN1 150307Z 26011KT 17/M04 A2991 RMK A01 T01661040  RH  024%=      5-min Rain = 0
KEN1 150308Z 26011KT 17/M04 A2991 RMK A01 T01651040  RH  024%=      5-min Rain = 0
KEN1 150309Z 26011KT 17/M04 A2991 RMK A01 T01651040  RH  024%=      5-min Rain = 0
KEN1 150310Z 26011KT 16/M04 A2991 RMK A01 T01641040  RH  024%=      5-min Rain = 0
KEN1 150311Z 26011KT 16/M04 A2991 RMK A01 T01641040  RH  024%=      5-min Rain = 0
KEN1 150312Z 26011KT 16/M04 A2991 RMK A01 T01641041  RH  024%=      5-min Rain = 0
KEN1 150313Z 26011KT 16/M04 A2991 RMK A01 T01631041  RH  024%=      5-min Rain = 0
KEN1 150314Z 25010KT 16/M04 A2991 RMK A01 T01631041  RH  024%=      5-min Rain = 0
KEN1 150315Z 25010KT 16/M04 A2991 RMK A01 T01621041  RH  025%=      5-min Rain = 0
KEN1 150316Z 26010KT 16/M04 A2991 RMK A01 T01611041  RH  025%=      5-min Rain = 0
KEN1 150317Z 26010KT 16/M04 A2991 RMK A01 T01591041  RH  025%=      5-min Rain = 0
KEN1 150318Z 25010KT 16/M04 A2991 RMK A01 T01581041  RH  025%=      5-min Rain = 0
KEN1 150319Z 25011KT 16/M04 A2991 RMK A01 T01581041  RH  025%=      5-min Rain = 0
KEN1 150320Z 26011KT 16/M04 A2991 RMK A01 T01581041  RH  025%=      5-min Rain = 0
KEN1 150321Z 26011KT 16/M04 A2991 RMK A01 T01581041  RH  025%=      5-min Rain = 0
KEN1 150322Z 26011KT 16/M04 A2991 RMK A01 T01571041  RH  025%=      5-min Rain = 0
KEN1 150323Z 26012KT 16/M04 A2991 RMK A01 T01561041  RH  025%=      5-min Rain = 0
KEN1 150324Z 26012KT 16/M04 A2991 RMK A01 T01551041  RH  026%=      5-min Rain = 0
KEN1 150325Z 26011KT 16/M04 A2991 RMK A01 T01551042  RH  026%=      5-min Rain = 0
KEN1 150326Z 26011KT 16/M04 A2991 RMK A01 T01551042  RH  026%=      5-min Rain = 0
KEN1 150327Z 26011KT 16/M04 A2991 RMK A01 T01551042  RH  026%=      5-min Rain = 0
KEN1 150328Z 26011KT 16/M04 A2991 RMK A01 T01551042  RH  025%=      5-min Rain = 0
KEN1 150329Z 26011KT 16/M04 A2991 RMK A01 T01551043  RH  025%=      5-min Rain = 0
KEN1 150330Z 26011KT 16/M04 A2991 RMK A01 T01561043  RH  025%=      5-min Rain = 0
KEN1 150331Z 26010KT 16/M04 A2991 RMK A01 T01571043  RH  025%=      5-min Rain = 0
KEN1 150332Z 26010KT 16/M04 A2991 RMK A01 T01571043  RH  025%=      5-min Rain = 0
KEN1 150333Z 26010KT 16/M04 A2991 RMK A01 T01571043  RH  025%=      5-min Rain = 0
KEN1 150334Z 26009KT 16/M04 A2991 RMK A01 T01561043  RH  025%=      5-min Rain = 0
KEN1 150335Z 26008KT 15/M04 A2991 RMK A01 T01541044  RH  025%=      5-min Rain = 0
KEN1 150336Z 26008KT 15/M04 A2991 RMK A01 T01521044  RH  026%=      5-min Rain = 0
KEN1 150337Z 26008KT 15/M04 A2991 RMK A01 T01501044  RH  026%=      5-min Rain = 0
KEN1 150338Z 26008KT 15/M04 A2991 RMK A01 T01491044  RH  026%=      5-min Rain = 0
KEN1 150339Z 26007KT 15/M04 A2991 RMK A01 T01481044  RH  026%=      5-min Rain = 0
KEN1 150340Z 26007KT 15/M04 A2991 RMK A01 T01461044  RH  026%=      5-min Rain = 0
KEN1 150341Z 26007KT 15/M05 A2991 RMK A01 T01451045  RH  027%=      5-min Rain = 0
KEN1 150342Z 26007KT 14/M05 A2992 RMK A01 T01441045  RH  027%=      5-min Rain = 0
KEN1 150343Z 26006KT 14/M05 A2992 RMK A01 T01441045  RH  027%=      5-min Rain = 0
KEN1 150344Z 26006KT 14/M05 A2992 RMK A01 T01441045  RH  027%=      5-min Rain = 0
KEN1 150345Z 26006KT 14/M05 A2992 RMK A01 T01441045  RH  027%=      5-min Rain = 0
KEN1 150346Z 26006KT 14/M05 A2992 RMK A01 T01441045  RH  027%=      5-min Rain = 0
KEN1 150347Z 26006KT 14/M05 A2992 RMK A01 T01441045  RH  027%=      5-min Rain = 0
KEN1 150348Z 26006KT 14/M05 A2992 RMK A01 T01431045  RH  027%=      5-min Rain = 0
KEN1 150349Z 26006KT 14/M05 A2992 RMK A01 T01431046  RH  027%=      5-min Rain = 0
KEN1 150350Z 26006KT 14/M05 A2992 RMK A01 T01421046  RH  027%=      5-min Rain = 0
KEN1 150351Z 26006KT 14/M05 A2992 RMK A01 T01421046  RH  027%=      5-min Rain = 0
KEN1 150352Z 26006KT 14/M05 A2992 RMK A01 T01411046  RH  027%=      5-min Rain = 0
KEN1 150353Z 26006KT 14/M05 A2992 RMK A01 T01401046  RH  027%=      5-min Rain = 0
KEN1 150354Z 26006KT 14/M05 A2992 RMK A01 T01391046  RH  027%=      5-min Rain = 0
KEN1 150355Z 26005KT 14/M05 A2992 RMK A01 T01381046  RH  027%=      5-min Rain = 0
KEN1 150356Z 27005KT 14/M05 A2993 RMK A01 T01381046  RH  028%=      5-min Rain = 0
KEN1 150357Z 27005KT 14/M05 A2993 RMK A01 T01371046  RH  028%=      5-min Rain = 0
KEN1 150358Z 27004KT 14/M05 A2993 RMK A01 T01371046  RH  028%=      5-min Rain = 0
KEN1 150359Z 28004KT 14/M05 A2993 RMK A01 T01371046  RH  028%=      5-min Rain = 0
KEN1 150400Z 28004KT 14/M05 A2993 RMK A01 T01361045  RH  028%=      5-min Rain = 0
KEN1 150401Z 28004KT 14/M05 A2993 RMK A01 T01361046  RH  028%=      5-min Rain = 0
KEN1 150402Z 29005KT 14/M05 A2993 RMK A01 T01361046  RH  028%=      5-min Rain = 0
KEN1 150403Z 29005KT 14/M05 A2993 RMK A01 T01361045  RH  028%=      5-min Rain = 0
KEN1 150404Z 28006KT 14/M05 A2993 RMK A01 T01361046  RH  028%=      5-min Rain = 0
KEN1 150405Z 28006KT 14/M05 A2993 RMK A01 T01361046  RH  028%=      5-min Rain = 0
KEN1 150406Z 28007KT 14/M05 A2993 RMK A01 T01361045  RH  028%=      5-min Rain = 0
KEN1 150407Z 28007KT 14/M05 A2993 RMK A01 T01361045  RH  028%=      5-min Rain = 0
KEN1 150408Z 28008KT 14/M05 A2993 RMK A01 T01361045  RH  028%=      5-min Rain = 0
KEN1 150409Z 28008KT 14/M05 A2993 RMK A01 T01361045  RH  028%=      5-min Rain = 0
KEN1 150410Z 27008KT 14/M05 A2993 RMK A01 T01361045  RH  028%=      5-min Rain = 0
KEN1 150411Z 27009KT 14/M05 A2993 RMK A01 T01361045  RH  028%=      5-min Rain = 0
KEN1 150412Z 27008KT 14/M04 A2993 RMK A01 T01351044  RH  028%=      5-min Rain = 0
KEN1 150413Z 27009KT 13/M04 A2993 RMK A01 T01341044  RH  029%=      5-min Rain = 0
KEN1 150414Z 27008KT 13/M04 A2993 RMK A01 T01331044  RH  029%=      5-min Rain = 0
KEN1 150415Z 27008KT 13/M04 A2993 RMK A01 T01321044  RH  029%=      5-min Rain = 0
KEN1 150416Z 27008KT 13/M05 A2993 RMK A01 T01301045  RH  029%=      5-min Rain = 0
KEN1 150417Z 26008KT 13/M05 A2993 RMK A01 T01291045  RH  029%=      5-min Rain = 0
KEN1 150418Z 26008KT 13/M05 A2993 RMK A01 T01271045  RH  030%=      5-min Rain = 0
KEN1 150419Z 26008KT 13/M05 A2993 RMK A01 T01261045  RH  030%=      5-min Rain = 0
KEN1 150420Z 27007KT 12/M05 A2993 RMK A01 T01241045  RH  030%=      5-min Rain = 0
KEN1 150421Z 26007KT 12/M05 A2993 RMK A01 T01231046  RH  031%=      5-min Rain = 0
KEN1 150422Z 26007KT 12/M05 A2993 RMK A01 T01221046  RH  031%=      5-min Rain = 0
KEN1 150423Z 26007KT 12/M05 A2993 RMK A01 T01211046  RH  031%=      5-min Rain = 0
KEN1 150424Z 26007KT 12/M05 A2993 RMK A01 T01211046  RH  031%=      5-min Rain = 0
KEN1 150425Z 26007KT 12/M05 A2993 RMK A01 T01211046  RH  031%=      5-min Rain = 0
KEN1 150426Z 26007KT 12/M05 A2993 RMK A01 T01211046  RH  031%=      5-min Rain = 0
KEN1 150427Z 25007KT 12/M05 A2993 RMK A01 T01211046  RH  031%=      5-min Rain = 0
KEN1 150428Z 25007KT 12/M05 A2993 RMK A01 T01221046  RH  031%=      5-min Rain = 0
KEN1 150429Z 25007KT 12/M05 A2993 RMK A01 T01221046  RH  031%=      5-min Rain = 0
KEN1 150430Z 25006KT 12/M05 A2993 RMK A01 T01221046  RH  031%=      5-min Rain = 0
KEN1 150431Z 25006KT 12/M05 A2993 RMK A01 T01211046  RH  031%=      5-min Rain = 0
KEN1 150432Z 25005KT 12/M05 A2993 RMK A01 T01191047  RH  031%=      5-min Rain = 0
KEN1 150433Z 26006KT 12/M05 A2993 RMK A01 T01191047  RH  031%=      5-min Rain = 0
KEN1 150434Z 26006KT 12/M05 A2993 RMK A01 T01181047  RH  031%=      5-min Rain = 0
KEN1 150435Z 25005KT 12/M05 A2993 RMK A01 T01191048  RH  031%=      5-min Rain = 0
KEN1 150436Z 26005KT 12/M05 A2993 RMK A01 T01191047  RH  031%=      5-min Rain = 0
KEN1 150437Z 26004KT 12/M05 A2993 RMK A01 T01191047  RH  031%=      5-min Rain = 0
KEN1 150438Z 26004KT 12/M05 A2993 RMK A01 T01191048  RH  031%=      5-min Rain = 0
KEN1 150439Z 26004KT 12/M05 A2993 RMK A01 T01201047  RH  031%=      5-min Rain = 0
KEN1 150440Z 26004KT 12/M05 A2993 RMK A01 T01201048  RH  031%=      5-min Rain = 0
KEN1 150441Z 26004KT 12/M05 A2993 RMK A01 T01191048  RH  031%=      5-min Rain = 0
KEN1 150442Z 26004KT 12/M05 A2993 RMK A01 T01191048  RH  031%=      5-min Rain = 0
KEN1 150443Z 26004KT 12/M05 A2993 RMK A01 T01191048  RH  031%=      5-min Rain = 0
KEN1 150444Z 26004KT 12/M05 A2993 RMK A01 T01191048  RH  031%=      5-min Rain = 0
KEN1 150445Z 26005KT 12/M05 A2993 RMK A01 T01201048  RH  031%=      5-min Rain = 0
KEN1 150446Z 26004KT 12/M05 A2994 RMK A01 T01201048  RH  031%=      5-min Rain = 0
KEN1 150447Z 26004KT 12/M05 A2994 RMK A01 T01211048  RH  030%=      5-min Rain = 0
KEN1 150448Z 28003KT 12/M05 A2994 RMK A01 T01211048  RH  030%=      5-min Rain = 0
KEN1 150449Z 28002KT 12/M05 A2994 RMK A01 T01201048  RH  030%=      5-min Rain = 0
KEN1 150450Z 28003KT 12/M05 A2994 RMK A01 T01201048  RH  030%=      5-min Rain = 0
KEN1 150451Z 28002KT 12/M05 A2994 RMK A01 T01201048  RH  030%=      5-min Rain = 0
KEN1 150452Z 28002KT 12/M05 A2994 RMK A01 T01201049  RH  030%=      5-min Rain = 0
KEN1 150453Z 29002KT 12/M05 A2994 RMK A01 T01201048  RH  030%=      5-min Rain = 0
KEN1 150454Z 28002KT 12/M05 A2994 RMK A01 T01201049  RH  030%=      5-min Rain = 0
KEN1 150455Z 28003KT 12/M05 A2994 RMK A01 T01201049  RH  030%=      5-min Rain = 0
KEN1 150456Z 28005KT 12/M05 A2994 RMK A01 T01211049  RH  030%=      5-min Rain = 0
KEN1 150457Z 28003KT 12/M05 A2994 RMK A01 T01241049  RH  030%=      5-min Rain = 0
KEN1 150458Z 29004KT 13/M05 A2995 RMK A01 T01261049  RH  029%=      5-min Rain = 0
KEN1 150459Z 29004KT 13/M05 A2995 RMK A01 T01281049  RH  029%=      5-min Rain = 0
KEN1 150500Z 30003KT 13/M05 A2995 RMK A01 T01291049  RH  029%=      5-min Rain = 0
KEN1 150501Z 29004KT 13/M05 A2995 RMK A01 T01291050  RH  028%=      5-min Rain = 0
KEN1 150502Z 29004KT 13/M05 A2995 RMK A01 T01291050  RH  028%=      5-min Rain = 0
KEN1 150503Z 29005KT 13/M05 A2995 RMK A01 T01291049  RH  029%=      5-min Rain = 0
KEN1 150504Z 29005KT 13/M05 A2995 RMK A01 T01281050  RH  029%=      5-min Rain = 0
KEN1 150505Z 29006KT 13/M05 A2995 RMK A01 T01281049  RH  029%=      5-min Rain = 0
KEN1 150506Z 28005KT 13/M05 A2995 RMK A01 T01281049  RH  029%=      5-min Rain = 0
KEN1 150507Z 28005KT 13/M05 A2995 RMK A01 T01291049  RH  029%=      5-min Rain = 0
KEN1 150508Z 28005KT 13/M05 A2995 RMK A01 T01281049  RH  029%=      5-min Rain = 0
KEN1 150509Z 27006KT 13/M05 A2995 RMK A01 T01271049  RH  029%=      5-min Rain = 0
KEN1 150510Z 27006KT 13/M05 A2995 RMK A01 T01271049  RH  029%=      5-min Rain = 0
KEN1 150511Z 27006KT 13/M05 A2995 RMK A01 T01251049  RH  029%=      5-min Rain = 0
KEN1 150512Z 27006KT 12/M05 A2995 RMK A01 T01241049  RH  030%=      5-min Rain = 0
KEN1 150513Z 27005KT 12/M05 A2995 RMK A01 T01221049  RH  030%=      5-min Rain = 0
KEN1 150514Z 27005KT 12/M05 A2995 RMK A01 T01211049  RH  030%=      5-min Rain = 0
KEN1 150515Z 27005KT 12/M05 A2995 RMK A01 T01211049  RH  030%=      5-min Rain = 0
KEN1 150516Z 28005KT 12/M05 A2995 RMK A01 T01211049  RH  030%=      5-min Rain = 0
KEN1 150517Z 28005KT 12/M05 A2995 RMK A01 T01211049  RH  030%=      5-min Rain = 0
KEN1 150518Z 28006KT 12/M05 A2995 RMK A01 T01211050  RH  030%=      5-min Rain = 0
KEN1 150519Z 28006KT 12/M05 A2995 RMK A01 T01211049  RH  030%=      5-min Rain = 0
KEN1 150520Z 28006KT 12/M05 A2995 RMK A01 T01211049  RH  030%=      5-min Rain = 0
KEN1 150521Z 28006KT 12/M05 A2995 RMK A01 T01211049  RH  030%=      5-min Rain = 0
KEN1 150522Z 28006KT 12/M05 A2995 RMK A01 T01211049  RH  030%=      5-min Rain = 0
KEN1 150523Z 27006KT 12/M05 A2995 RMK A01 T01211049  RH  030%=      5-min Rain = 0
KEN1 150524Z 27006KT 12/M05 A2995 RMK A01 T01201049  RH  030%=      5-min Rain = 0
KEN1 150525Z 27006KT 12/M05 A2995 RMK A01 T01191049  RH  031%=      5-min Rain = 0
KEN1 150526Z 27006KT 12/M05 A2995 RMK A01 T01191049  RH  031%=      5-min Rain = 0
KEN1 150527Z 27006KT 12/M05 A2995 RMK A01 T01181049  RH  031%=      5-min Rain = 0
KEN1 150528Z 27005KT 12/M05 A2995 RMK A01 T01181049  RH  031%=      5-min Rain = 0
KEN1 150529Z 27005KT 12/M05 A2995 RMK A01 T01191049  RH  031%=      5-min Rain = 0
KEN1 150530Z 27005KT 12/M05 A2995 RMK A01 T01191049  RH  030%=      5-min Rain = 0
KEN1 150531Z 26005KT 12/M05 A2995 RMK A01 T01191049  RH  030%=      5-min Rain = 0
KEN1 150532Z 26005KT 12/M05 A2996 RMK A01 T01191049  RH  031%=      5-min Rain = 0
KEN1 150533Z 26006KT 12/M05 A2995 RMK A01 T01191049  RH  031%=      5-min Rain = 0
KEN1 150534Z 26006KT 12/M05 A2996 RMK A01 T01191049  RH  031%=      5-min Rain = 0
KEN1 150535Z 25006KT 12/M05 A2996 RMK A01 T01191048  RH  031%=      5-min Rain = 0
KEN1 150536Z 26007KT 12/M05 A2996 RMK A01 T01191048  RH  031%=      5-min Rain = 0
KEN1 150537Z 26007KT 12/M05 A2996 RMK A01 T01201048  RH  031%=      5-min Rain = 0
KEN1 150538Z 26008KT 12/M05 A2996 RMK A01 T01211048  RH  030%=      5-min Rain = 0
KEN1 150539Z 27007KT 12/M05 A2996 RMK A01 T01211048  RH  030%=      5-min Rain = 0
KEN1 150540Z 26006KT 12/M05 A2996 RMK A01 T01221049  RH  030%=      5-min Rain = 0
KEN1 150541Z 26007KT 12/M05 A2996 RMK A01 T01211048  RH  030%=      5-min Rain = 0
KEN1 150542Z 26006KT 12/M05 A2996 RMK A01 T01201048  RH  030%=      5-min Rain = 0
KEN1 150543Z 27006KT 12/M05 A2996 RMK A01 T01201049  RH  030%=      5-min Rain = 0
KEN1 150544Z 26007KT 12/M05 A2996 RMK A01 T01201049  RH  030%=      5-min Rain = 0
KEN1 150545Z 26006KT 12/M05 A2996 RMK A01 T01191049  RH  031%=      5-min Rain = 0
KEN1 150546Z 27006KT 12/M05 A2996 RMK A01 T01181049  RH  031%=      5-min Rain = 0
KEN1 150547Z 27006KT 12/M05 A2996 RMK A01 T01181049  RH  031%=      5-min Rain = 0
KEN1 150548Z 26005KT 12/M05 A2996 RMK A01 T01181049  RH  031%=      5-min Rain = 0
KEN1 150549Z 27005KT 12/M05 A2996 RMK A01 T01181049  RH  031%=      5-min Rain = 0
KEN1 150550Z 27005KT 12/M05 A2996 RMK A01 T01171049  RH  031%=      5-min Rain = 0
KEN1 150551Z 26006KT 12/M05 A2996 RMK A01 T01161049  RH  031%=      5-min Rain = 0
KEN1 150552Z 26006KT 12/M05 A2996 RMK A01 T01161049  RH  031%=      5-min Rain = 0
KEN1 150553Z 26007KT 12/M05 A2996 RMK A01 T01161050  RH  031%=      5-min Rain = 0
KEN1 150554Z 26006KT 12/M05 A2997 RMK A01 T01151049  RH  031%=      5-min Rain = 0
KEN1 150555Z 26007KT 12/M05 A2997 RMK A01 T01151050  RH  031%=      5-min Rain = 0
KEN1 150556Z 26008KT 11/M05 A2997 RMK A01 T01141049  RH  031%=      5-min Rain = 0
KEN1 150557Z 26008KT 11/M05 A2997 RMK A01 T01141049  RH  032%=      5-min Rain = 0
KEN1 150558Z 26008KT 11/M05 A2997 RMK A01 T01131049  RH  032%=      5-min Rain = 0
KEN1 150559Z 25008KT 11/M05 A2997 RMK A01 T01121050  RH  032%=      5-min Rain = 0
KEN1 150600Z 25008KT 11/M05 A2997 RMK A01 T01101049  RH  032%=      5-min Rain = 0

Page generated in 0.0615 seconds.